LU6FG Weather Reports


time (UTC)temp
C
wind
direction
speed
KPH
gust
KPH
rain 1hr
cm
rain 24hr
cm
rain mn
cm
humidity
%
barometer
mb
20260506004530 22 79 3.2 11.3 0.00 0.00 0.00 96 1011.0
20260506004409 22 81 4.8 11.3 0.00 0.00 0.00 96 1011.1
20260506004309 22 81 3.2 11.3 0.00 0.00 0.00 96 1011.1
20260506004209 22 80 3.2 11.3 0.00 0.00 0.00 96 1011.2
20260506004109 22 80 6.4 11.3 0.00 0.00 0.00 96 1011.1
20260506004009 22 81 4.8 11.3 0.00 0.00 0.00 96 1011.1
20260506003909 22 79 6.4 11.3 0.00 0.00 0.00 96 1011.1
20260506003809 22 79 4.8 14.5 0.00 0.00 0.00 96 1011.3
20260506003709 22 80 3.2 14.5 0.00 0.00 0.00 96 1011.1
20260506003609 22 79 3.2 14.5 0.00 0.00 0.00 96 1011.2
20260506003509 22 81 6.4 14.5 0.00 0.00 0.00 96 1011.1
20260506003409 22 84 3.2 14.5 0.00 0.00 0.00 96 1011.0
20260506003309 22 86 4.8 14.5 0.00 0.00 0.00 96 1011.1
20260506003230 22 87 4.8 14.5 0.00 0.00 0.00 96 1011.1
20260506003109 22 88 3.2 14.5 0.00 0.00 0.00 96 1011.0
20260506003009 22 85 3.2 14.5 0.00 0.00 0.00 96 1011.0
20260506002909 22 87 4.8 14.5 0.00 0.00 0.00 96 1010.9
20260506002830 22 89 6.4 14.5 0.00 0.00 0.00 96 1011.1
20260506002709 22 83 3.2 12.9 0.00 0.00 0.00 96 1011.2
20260506002609 22 83 3.2 12.9 0.00 0.00 0.00 96 1011.2
20260506002509 22 82 3.2 12.9 0.00 0.00 0.00 96 1011.0
20260506002409 22 76 3.2 12.9 0.00 0.00 0.00 96 1011.0
20260506002309 22 75 9.7 12.9 0.00 0.00 0.00 96 1011.1
20260506002230 22 74 9.7 12.9 0.00 0.00 0.00 96 1011.1
20260506002109 22 73 6.4 11.3 0.00 0.00 0.00 96 1011.0
20260506002009 22 77 6.4 14.5 0.00 0.00 0.00 96 1011.0
20260506001930 22 80 4.8 14.5 0.00 0.00 0.00 96 1010.8
20260506001809 22 76 4.8 14.5 0.00 0.00 0.00 96 1010.9
20260506001709 22 79 4.8 14.5 0.00 0.00 0.00 96 1011.0
20260506001609 22 81 6.4 14.5 0.00 0.00 0.00 96 1011.0
20260506001509 22 79 6.4 14.5 0.00 0.00 0.00 96 1010.9
20260506001409 22 84 4.8 14.5 0.00 0.00 0.00 96 1010.9
20260506001309 22 85 3.2 14.5 0.00 0.00 0.00 96 1010.8
20260506001209 22 83 3.2 14.5 0.00 0.00 0.00 96 1010.9
20260506001109 22 83 6.4 14.5 0.00 0.00 0.00 96 1010.9
20260506001030 22 83 6.4 14.5 0.00 0.00 0.00 96 1010.9
20260506000909 22 80 4.8 11.3 0.00 0.00 0.00 96 1011.0
20260506000809 22 79 3.2 11.3 0.00 0.00 0.00 96 1011.0
20260506000730 22 77 4.8 11.3 0.00 0.00 0.00 96 1010.9
20260506000609 22 76 6.4 11.3 0.00 0.00 0.00 96 1010.8
20260506000530 22 79 3.2 9.7 0.00 0.00 0.00 96 1010.7
20260506000409 22 79 4.8 9.7 0.00 0.00 0.00 96 1010.8
20260506000309 22 79 3.2 9.7 0.00 0.00 0.00 96 1010.8
20260506000211 22 77 4.8 9.7 0.00 0.00 0.00 96 1010.9
20260506000109 22 78 4.8 12.9 0.00 0.00 0.00 96 1010.8
20260506000009 22 78 4.8 12.9 0.00 0.00 0.00 96 1010.8
20260505235909 22 81 3.2 12.9 0.00 0.00 0.00 96 1010.9
20260505235809 22 85 3.2 12.9 0.00 0.00 0.00 96 1011.0
20260505235709 22 88 3.2 12.9 0.00 0.00 0.00 96 1011.0
20260505235609 22 90 3.2 12.9 0.00 0.00 0.00 96 1010.8
20260505235509 22 90 3.2 12.9 0.00 0.00 0.00 96 1010.9
20260505235430 22 90 3.2 12.9 0.00 0.00 0.00 96 1010.9
20260505235330 22 90 3.2 12.9 0.00 0.00 0.00 96 1010.9
20260505235209 22 92 3.2 12.9 0.00 0.00 0.00 96 1010.9
20260505235109 22 93 4.8 11.3 0.00 0.00 0.00 96 1010.8
20260505235030 22 94 4.8 11.3 0.00 0.00 0.00 96 1010.8
20260505234909 22 89 6.4 11.3 0.00 0.00 0.00 96 1010.8
20260505234809 22 89 3.2 11.3 0.00 0.00 0.00 96 1010.7
20260505234730 22 88 4.8 11.3 0.00 0.00 0.00 95 1010.8
20260505234609 22 85 4.8 11.3 0.00 0.00 0.00 95 1010.8
20260505234530 22 83 4.8 11.3 0.00 0.00 0.00 95 1010.8
20260505234409 22 81 6.4 11.3 0.00 0.00 0.00 95 1010.8
20260505234309 22 76 4.8 9.7 0.00 0.00 0.00 95 1010.7
20260505234209 22 74 3.2 9.7 0.00 0.00 0.00 95 1010.8
20260505234109 22 73 3.2 9.7 0.00 0.00 0.00 95 1010.7
20260505234009 22 68 3.2 9.7 0.00 0.00 0.00 95 1010.8
20260505233909 22 67 3.2 9.7 0.00 0.00 0.00 95 1010.8
20260505233809 22 65 3.2 9.7 0.00 0.00 0.00 95 1010.8
20260505233709 22 66 3.2 9.7 0.00 0.00 0.00 95 1010.7
20260505233610 22 67 3.2 9.7 0.00 0.00 0.00 95 1010.8
20260505233509 22 69 3.2 9.7 0.00 0.00 0.00 95 1010.7
20260505233409 22 69 3.2 9.7 0.00 0.00 0.00 95 1010.6
20260505233309 22 70 3.2 9.7 0.00 0.00 0.00 95 1010.7
20260505233230 22 69 3.2 9.7 0.00 0.00 0.00 95 1010.6
20260505233130 22 66 3.2 9.7 0.00 0.00 0.00 95 1010.8
20260505233009 22 71 4.8 9.7 0.00 0.00 0.00 95 1010.6
20260505232909 22 74 6.4 9.7 0.00 0.00 0.00 95 1010.7
20260505232809 22 70 3.2 9.7 0.00 0.00 0.00 95 1010.5
20260505232709 22 68 4.8 9.7 0.00 0.00 0.00 95 1010.7
20260505232609 22 70 3.2 9.7 0.00 0.00 0.00 95 1010.7
20260505232509 22 66 6.4 11.3 0.00 0.00 0.00 95 1010.6
20260505232430 22 69 4.8 11.3 0.00 0.00 0.00 95 1010.6
20260505232330 22 67 4.8 11.3 0.00 0.00 0.00 94 1010.7
20260505232209 22 70 4.8 11.3 0.00 0.00 0.00 94 1010.6
20260505232109 22 68 4.8 11.3 0.00 0.00 0.00 94 1010.5
20260505232030 22 71 4.8 11.3 0.00 0.00 0.00 94 1010.8
20260505231930 22 71 3.2 11.3 0.00 0.00 0.00 94 1010.8
20260505231809 22 75 4.8 11.3 0.00 0.00 0.00 94 1010.8
20260505231709 22 78 3.2 11.3 0.00 0.00 0.00 94 1010.7
20260505231609 23 78 4.8 11.3 0.00 0.00 0.00 94 1010.7
20260505231509 23 77 4.8 11.3 0.00 0.00 0.00 94 1010.6
20260505231430 23 74 4.8 11.3 0.00 0.00 0.00 94 1010.6
20260505231309 23 75 3.2 11.3 0.00 0.00 0.00 94 1010.8
20260505231209 23 76 4.8 11.3 0.00 0.00 0.00 94 1010.6
20260505231109 23 81 6.4 11.3 0.00 0.00 0.00 94 1010.7
20260505231009 23 78 4.8 11.3 0.00 0.00 0.00 94 1010.6
20260505230909 23 81 3.2 11.3 0.00 0.00 0.00 94 1010.6
20260505230809 23 82 3.2 11.3 0.00 0.00 0.00 94 1010.5
20260505230709 23 84 4.8 11.3 0.00 0.00 0.00 93 1010.5
20260505230609 23 86 3.2 11.3 0.00 0.00 0.00 93 1010.5
20260505230509 23 93 4.8 11.3 0.00 0.00 0.00 93 1010.5
20260505230409 23 99 3.2 11.3 0.00 0.00 0.00 93 1010.3
20260505230309 23 101 4.8 11.3 0.00 0.00 0.00 93 1010.5
20260505230209 23 102 4.8 11.3 0.00 0.00 0.00 93 1010.5
20260505230130 23 101 3.2 11.3 0.00 0.00 0.00 93 1010.6
20260505230009 23 103 3.2 11.3 0.00 0.00 0.00 93 1010.6
20260505225930 23 102 4.8 11.3 0.00 0.00 0.00 93 1010.5
20260505225809 23 105 6.4 11.3 0.00 0.00 0.00 93 1010.8
20260505225709 23 104 6.4 11.3 0.00 0.00 0.00 93 1010.8
20260505225609 23 104 4.8 11.3 0.00 0.00 0.00 93 1010.8
20260505225509 23 102 6.4 11.3 0.00 0.00 0.00 92 1010.7
20260505225409 23 102 3.2 11.3 0.00 0.00 0.00 92 1010.7
20260505225330 23 100 6.4 11.3 0.00 0.00 0.00 92 1010.7
20260505225209 23 100 6.4 11.3 0.00 0.00 0.00 92 1010.6
20260505225130 23 100 4.8 11.3 0.00 0.00 0.00 92 1010.6
20260505225030 23 99 6.4 11.3 0.00 0.00 0.00 92 1010.7
20260505224909 23 98 4.8 9.7 0.00 0.00 0.00 92 1010.9
20260505224830 23 96 4.8 9.7 0.00 0.00 0.00 92 1010.6
20260505224709 23 92 3.2 9.7 0.00 0.00 0.00 92 1010.8
20260505224609 23 91 4.8 9.7 0.00 0.00 0.00 92 1010.7
20260505224509 23 91 3.2 9.7 0.00 0.00 0.00 92 1010.7
20260505224409 23 90 4.8 9.7 0.00 0.00 0.00 92 1010.8
20260505224309 23 90 1.6 6.4 0.00 0.00 0.00 92 1010.7
20260505224209 23 93 3.2 6.4 0.00 0.00 0.00 92 1010.7
20260505224109 23 93 1.6 6.4 0.00 0.00 0.00 92 1010.7
20260505224009 23 93 1.6 6.4 0.00 0.00 0.00 92 1010.6
20260505223909 23 94 3.2 6.4 0.00 0.00 0.00 91 1010.7
20260505223809 23 94 3.2 6.4 0.00 0.00 0.00 91 1010.6
20260505223709 23 92 3.2 6.4 0.00 0.00 0.00 91 1010.8
20260505223609 23 94 3.2 6.4 0.00 0.00 0.00 91 1010.8
20260505223509 23 93 3.2 6.4 0.00 0.00 0.00 91 1010.6
20260505223409 23 92 3.2 6.4 0.00 0.00 0.00 91 1010.6
20260505223330 23 89 3.2 6.4 0.00 0.00 0.00 91 1010.5
20260505223209 23 86 4.8 6.4 0.00 0.00 0.00 91 1010.5
20260505223109 23 85 3.2 6.4 0.00 0.00 0.00 91 1010.5
20260505223009 23 82 3.2 6.4 0.00 0.00 0.00 91 1010.4
20260505222909 23 79 3.2 6.4 0.00 0.00 0.00 91 1010.4
20260505222809 23 75 1.6 6.4 0.00 0.00 0.00 91 1010.4
20260505222730 23 76 3.2 6.4 0.00 0.00 0.00 91 1010.5
20260505222609 23 75 3.2 3.2 0.00 0.00 0.00 91 1010.5
20260505222509 23 73 3.2 3.2 0.00 0.00 0.00 91 1010.6
20260505222409 23 74 1.6 3.2 0.00 0.00 0.00 91 1010.4
20260505222309 23 78 1.6 3.2 0.00 0.00 0.00 90 1010.4
20260505222231 23 77 1.6 3.2 0.00 0.00 0.00 90 1010.4
20260505222109 23 76 1.6 3.2 0.00 0.00 0.00 90 1010.3
20260505222009 23 77 3.2 3.2 0.00 0.00 0.00 90 1010.6
20260505221909 23 80 3.2 3.2 0.00 0.00 0.00 90 1010.3
20260505221809 23 84 1.6 3.2 0.00 0.00 0.00 90 1010.5
20260505221709 23 84 3.2 3.2 0.00 0.00 0.00 90 1010.3
20260505221609 23 86 3.2 3.2 0.00 0.00 0.00 90 1010.2
20260505221509 23 88 1.6 3.2 0.00 0.00 0.00 90 1010.3
20260505221409 23 88 1.6 3.2 0.00 0.00 0.00 90 1010.2
20260505221330 23 88 1.6 3.2 0.00 0.00 0.00 90 1010.3
20260505221209 23 89 1.6 3.2 0.00 0.00 0.00 90 1010.2
20260505221109 23 90 0.0 3.2 0.00 0.00 0.00 90 1010.3
20260505221009 23 90 1.6 3.2 0.00 0.00 0.00 90 1010.4
20260505220930 23 88 1.6 3.2 0.00 0.00 0.00 90 1010.5
20260505220809 23 87 1.6 3.2 0.00 0.00 0.00 90 1010.4
20260505220709 23 86 0.0 3.2 0.00 0.00 0.00 90 1010.3
20260505220609 23 86 1.6 3.2 0.00 0.00 0.00 90 1010.4
20260505220509 23 83 0.0 3.2 0.00 0.00 0.00 90 1010.3
20260505220409 24 83 1.6 3.2 0.00 0.00 0.00 90 1010.3
20260505220309 24 83 1.6 3.2 0.00 0.00 0.00 89 1010.3
20260505220209 24 83 0.0 3.2 0.00 0.00 0.00 89 1010.3
20260505220131 24 84 0.0 3.2 0.00 0.00 0.00 89 1010.2
20260505220009 24 85 0.0 3.2 0.00 0.00 0.00 89 1010.3
20260505215909 24 87 0.0 3.2 0.00 0.00 0.00 89 1010.3
20260505215809 24 85 0.0 3.2 0.00 0.00 0.00 89 1010.3
20260505215709 24 86 1.6 3.2 0.00 0.00 0.00 89 1010.2
20260505215609 24 87 3.2 3.2 0.00 0.00 0.00 89 1010.3
20260505215509 24 88 0.0 3.2 0.00 0.00 0.00 89 1010.4
20260505215409 24 88 1.6 3.2 0.00 0.00 0.00 89 1010.4
20260505215309 24 88 1.6 3.2 0.00 0.00 0.00 89 1010.4
20260505215209 24 88 1.6 3.2 0.00 0.00 0.00 89 1010.2
20260505215131 24 88 1.6 3.2 0.00 0.00 0.00 89 1010.4
20260505215009 24 86 0.0 3.2 0.00 0.00 0.00 89 1010.3
20260505214909 24 86 1.6 3.2 0.00 0.00 0.00 89 1010.2
20260505214809 24 87 1.6 3.2 0.00 0.00 0.00 89 1010.3
20260505214709 24 88 3.2 3.2 0.00 0.00 0.00 89 1010.3
20260505214609 24 88 3.2 3.2 0.00 0.00 0.00 89 1010.3
20260505214509 24 88 3.2 3.2 0.00 0.00 0.00 89 1010.3
20260505214430 24 88 1.6 3.2 0.00 0.00 0.00 88 1010.2
20260505214330 24 86 1.6 3.2 0.00 0.00 0.00 88 1010.3
20260505214209 24 83 1.6 3.2 0.00 0.00 0.00 88 1010.3
20260505214109 24 82 1.6 3.2 0.00 0.00 0.00 88 1010.4
20260505214009 24 82 1.6 6.4 0.00 0.00 0.00 88 1010.3
20260505213909 24 79 1.6 6.4 0.00 0.00 0.00 88 1010.4
20260505213809 24 76 0.0 6.4 0.00 0.00 0.00 88 1010.3
20260505213730 24 77 0.0 6.4 0.00 0.00 0.00 88 1010.1
20260505213609 24 75 1.6 6.4 0.00 0.00 0.00 88 1010.1
20260505213509 24 72 1.6 6.4 0.00 0.00 0.00 88 1010.1
20260505213409 24 72 0.0 6.4 0.00 0.00 0.00 88 1010.1
20260505213309 24 74 1.6 6.4 0.00 0.00 0.00 88 1010.2
20260505213209 24 77 1.6 6.4 0.00 0.00 0.00 89 1010.1
20260505213109 24 79 3.2 6.4 0.00 0.00 0.00 89 1010.2
20260505213009 24 79 1.6 6.4 0.00 0.00 0.00 89 1010.1
20260505212908 24 82 1.6 6.4 0.00 0.00 0.00 89 1010.1
20260505212808 24 84 3.2 6.4 0.00 0.00 0.00 89 1010.1
20260505212730 24 83 3.2 6.4 0.00 0.00 0.00 89 1010.1
20260505212609 24 85 3.2 6.4 0.00 0.00 0.00 89 1010.2
20260505212509 24 85 3.2 6.4 0.00 0.00 0.00 89 1010.2
20260505212409 24 86 3.2 6.4 0.00 0.00 0.00 89 1010.1
20260505212308 24 85 3.2 6.4 0.00 0.00 0.00 88 1010.2
20260505212231 24 83 3.2 6.4 0.00 0.00 0.00 88 1010.2
20260505212109 24 82 1.6 3.2 0.00 0.00 0.00 88 1010.1
20260505212030 24 82 3.2 3.2 0.00 0.00 0.00 88 1010.1
20260505211909 24 79 1.6 3.2 0.00 0.00 0.00 88 1010.1
20260505211808 24 78 3.2 3.2 0.00 0.00 0.00 88 1010.1
20260505211729 24 81 1.6 3.2 0.00 0.00 0.00 88 1010.2
20260505211608 24 81 0.0 3.2 0.00 0.00 0.00 88 1010.2
20260505211509 24 85 0.0 3.2 0.00 0.00 0.00 88 1010.2
20260505211430 24 84 0.0 3.2 0.00 0.00 0.00 88 1010.1
20260505211329 24 83 0.0 3.2 0.00 0.00 0.00 88 1010.1
20260505211209 24 86 0.0 3.2 0.00 0.00 0.00 88 1010.1
20260505211108 24 87 0.0 3.2 0.00 0.00 0.00 88 1010.2
20260505211009 24 85 3.2 3.2 0.00 0.00 0.00 88 1010.1
20260505210908 24 83 1.6 3.2 0.00 0.00 0.00 88 1010.2
20260505210808 24 85 0.0 3.2 0.00 0.00 0.00 88 1010.1
20260505210709 24 84 1.6 3.2 0.00 0.00 0.00 88 1010.2
20260505210609 24 84 1.6 3.2 0.00 0.00 0.00 88 1010.2
20260505210509 24 84 1.6 3.2 0.00 0.00 0.00 88 1010.1
20260505210409 24 85 0.0 3.2 0.00 0.00 0.00 88 1010.1
20260505210309 24 85 1.6 3.2 0.00 0.00 0.00 88 1010.1
20260505210209 24 85 1.6 3.2 0.00 0.00 0.00 88 1010.1
20260505210109 24 85 1.6 3.2 0.00 0.00 0.00 88 1010.2
20260505210030 24 86 1.6 6.4 0.00 0.00 0.00 88 1010.0
20260505205909 24 88 1.6 6.4 0.00 0.00 0.00 88 1010.2
20260505205809 24 87 1.6 6.4 0.00 0.00 0.00 88 1010.0
20260505205730 24 87 1.6 6.4 0.00 0.00 0.00 88 1009.9
20260505205630 24 89 1.6 6.4 0.00 0.00 0.00 88 1010.0
20260505205509 24 89 3.2 6.4 0.00 0.00 0.00 88 1009.9
20260505205409 24 89 3.2 6.4 0.00 0.00 0.00 88 1009.8
20260505205309 24 89 3.2 6.4 0.00 0.00 0.00 88 1009.9
20260505205209 24 89 1.6 6.4 0.00 0.00 0.00 88 1009.8
20260505205109 24 89 3.2 6.4 0.00 0.00 0.00 88 1009.8
20260505205009 24 85 3.2 6.4 0.00 0.00 0.00 88 1010.0
20260505204909 24 86 1.6 6.4 0.00 0.00 0.00 88 1009.9
20260505204808 24 90 3.2 6.4 0.00 0.00 0.00 88 1009.9
20260505204709 24 91 3.2 6.4 0.00 0.00 0.00 88 1010.0
20260505204609 24 91 3.2 6.4 0.00 0.00 0.00 88 1009.8
20260505204509 24 91 3.2 6.4 0.00 0.00 0.00 88 1009.8
20260505204409 24 92 3.2 6.4 0.00 0.00 0.00 87 1009.9
20260505204309 24 95 3.2 6.4 0.00 0.00 0.00 87 1009.9
20260505204230 24 95 3.2 6.4 0.00 0.00 0.00 87 1009.9
20260505204109 24 94 3.2 6.4 0.00 0.00 0.00 87 1009.9
20260505204008 24 96 3.2 6.4 0.00 0.00 0.00 87 1010.0
20260505203909 25 96 3.2 6.4 0.00 0.00 0.00 87 1009.9
20260505203809 25 94 3.2 6.4 0.00 0.00 0.00 87 1009.9
20260505203708 25 89 1.6 6.4 0.00 0.00 0.00 87 1010.0
20260505203609 25 87 3.2 6.4 0.00 0.00 0.00 87 1009.9
20260505203508 25 87 3.2 6.4 0.00 0.00 0.00 87 1010.1
20260505203408 25 86 3.2 6.4 0.00 0.00 0.00 87 1009.9
20260505203308 25 86 3.2 6.4 0.00 0.00 0.00 87 1010.0
20260505203208 25 85 1.6 6.4 0.00 0.00 0.00 87 1009.8
20260505203130 25 84 3.2 9.7 0.00 0.00 0.00 87 1010.0
20260505203009 25 77 3.2 9.7 0.00 0.00 0.00 87 1010.0
20260505202930 25 78 3.2 9.7 0.00 0.00 0.00 87 1010.0
20260505202830 25 78 3.2 9.7 0.00 0.00 0.00 87 1010.0
20260505202709 25 78 3.2 9.7 0.00 0.00 0.00 87 1010.0
20260505202630 25 79 3.2 9.7 0.00 0.00 0.00 87 1010.0
20260505202509 25 78 4.8 9.7 0.00 0.00 0.00 87 1010.1
20260505202409 25 79 3.2 9.7 0.00 0.00 0.00 87 1010.0
20260505202309 25 76 3.2 9.7 0.00 0.00 0.00 86 1009.7
20260505202209 25 76 3.2 9.7 0.00 0.00 0.00 86 1009.9
20260505202109 25 77 6.4 9.7 0.00 0.00 0.00 86 1009.8
20260505202009 25 83 6.4 9.7 0.00 0.00 0.00 86 1010.1
20260505201909 25 85 3.2 9.7 0.00 0.00 0.00 86 1010.1
20260505201808 25 85 3.2 9.7 0.00 0.00 0.00 86 1010.1
20260505201709 25 86 3.2 9.7 0.00 0.00 0.00 86 1010.0
20260505201608 25 87 1.6 9.7 0.00 0.00 0.00 86 1010.0
20260505201530 25 87 3.2 9.7 0.00 0.00 0.00 86 1009.8
20260505201430 25 86 3.2 9.7 0.00 0.00 0.00 86 1010.1
20260505201309 25 84 3.2 9.7 0.00 0.00 0.00 86 1010.1
20260505201209 25 85 3.2 9.7 0.00 0.00 0.00 86 1010.0
20260505201130 25 83 3.2 6.4 0.00 0.00 0.00 86 1010.0
20260505201009 25 83 3.2 6.4 0.00 0.00 0.00 85 1010.0
20260505200909 25 83 1.6 3.2 0.00 0.00 0.00 85 1010.0
20260505200808 25 80 1.6 3.2 0.00 0.00 0.00 85 1009.8
20260505200709 25 76 1.6 3.2 0.00 0.00 0.00 85 1010.1
20260505200609 25 75 1.6 3.2 0.00 0.00 0.00 85 1010.2
20260505200509 25 75 1.6 3.2 0.00 0.00 0.00 85 1010.0
20260505200409 25 75 3.2 3.2 0.00 0.00 0.00 85 1010.1
20260505200309 25 80 1.6 6.4 0.00 0.00 0.00 85 1010.0
20260505200209 25 83 0.0 6.4 0.00 0.00 0.00 85 1009.9
20260505200109 25 84 1.6 6.4 0.00 0.00 0.00 85 1010.0
20260505200030 25 86 3.2 6.4 0.00 0.00 0.00 85 1010.0
20260505195909 25 87 3.2 6.4 0.00 0.00 0.00 85 1010.0
20260505195830 25 88 3.2 6.4 0.00 0.00 0.00 85 1010.0
20260505195709 25 88 3.2 6.4 0.00 0.00 0.00 85 1010.0
20260505195609 25 89 3.2 6.4 0.00 0.00 0.00 85 1010.1
20260505195531 25 89 1.6 6.4 0.00 0.00 0.00 85 1010.0
20260505195430 25 89 0.0 6.4 0.00 0.00 0.00 85 1010.0
20260505195309 25 85 3.2 6.4 0.00 0.00 0.00 85 1010.1
20260505195230 25 81 3.2 3.2 0.00 0.00 0.00 85 1010.0
20260505195109 25 76 1.6 6.4 0.00 0.00 0.00 84 1010.0
20260505195009 25 75 1.6 6.4 0.00 0.00 0.00 84 1009.9
20260505194909 25 73 1.6 6.4 0.00 0.00 0.00 85 1009.9
20260505194809 25 76 1.6 6.4 0.00 0.00 0.00 84 1009.9
20260505194730 25 76 3.2 6.4 0.00 0.00 0.00 84 1010.0
20260505194609 25 77 3.2 6.4 0.00 0.00 0.00 84 1009.9
20260505194509 25 78 1.6 6.4 0.00 0.00 0.00 84 1010.0
20260505194409 25 77 3.2 6.4 0.00 0.00 0.00 84 1010.0
20260505194309 25 77 1.6 6.4 0.00 0.00 0.00 84 1010.0
20260505194209 25 78 3.2 6.4 0.00 0.00 0.00 84 1010.1
20260505194108 25 82 1.6 6.4 0.00 0.00 0.00 84 1010.0
20260505194029 25 81 1.6 6.4 0.00 0.00 0.00 85 1010.0
20260505193908 25 82 3.2 6.4 0.00 0.00 0.00 85 1010.2
20260505193809 25 81 3.2 6.4 0.00 0.00 0.00 85 1010.2
20260505193709 25 83 3.2 6.4 0.00 0.00 0.00 85 1010.0
20260505193609 25 84 3.2 6.4 0.00 0.00 0.00 85 1010.0
20260505193508 25 82 1.6 6.4 0.00 0.00 0.00 85 1009.9
20260505193409 25 78 3.2 6.4 0.00 0.00 0.00 85 1009.9
20260505193330 25 78 1.6 6.4 0.00 0.00 0.00 85 1010.0
20260505193208 25 75 1.6 6.4 0.00 0.00 0.00 85 1010.1
20260505193108 25 72 3.2 6.4 0.00 0.00 0.00 85 1010.1
20260505193010 25 72 3.2 6.4 0.00 0.00 0.00 85 1009.9
20260505192909 25 71 3.2 6.4 0.00 0.00 0.00 85 1010.0
20260505192809 25 68 3.2 6.4 0.00 0.00 0.00 85 1010.0
20260505192729 25 66 4.8 6.4 0.00 0.00 0.00 85 1010.0
20260505192629 25 62 4.8 6.4 0.00 0.00 0.00 85 1010.1
20260505192509 25 57 1.6 3.2 0.00 0.00 0.00 85 1010.1
20260505192409 25 63 1.6 3.2 0.00 0.00 0.00 85 1010.1
20260505192310 25 67 1.6 3.2 0.00 0.00 0.00 85 1010.3
20260505192209 25 67 1.6 3.2 0.00 0.00 0.00 84 1010.3
20260505192109 25 67 1.6 3.2 0.00 0.00 0.00 84 1010.3
20260505192008 25 67 1.6 3.2 0.00 0.00 0.00 84 1010.2
20260505191909 25 64 1.6 3.2 0.00 0.00 0.00 84 1010.3
20260505191809 25 68 3.2 6.4 0.00 0.00 0.00 84 1010.1
20260505191709 25 68 3.2 6.4 0.00 0.00 0.00 84 1010.3
20260505191609 25 68 1.6 6.4 0.00 0.00 0.00 84 1010.3
20260505191509 25 71 0.0 6.4 0.00 0.00 0.00 84 1010.4
20260505191409 25 73 0.0 6.4 0.00 0.00 0.00 84 1010.3
20260505191309 25 75 1.6 6.4 0.00 0.00 0.00 84 1010.3
20260505191209 25 77 1.6 6.4 0.00 0.00 0.00 84 1010.3
20260505191130 25 77 1.6 6.4 0.00 0.00 0.00 84 1010.3
20260505191008 25 80 1.6 6.4 0.00 0.00 0.00 84 1010.2
20260505190909 25 81 1.6 6.4 0.00 0.00 0.00 84 1010.4
20260505190830 26 81 3.2 6.4 0.00 0.00 0.00 83 1010.3
20260505190730 26 81 3.2 6.4 0.00 0.00 0.00 83 1010.3
20260505190608 26 83 3.2 3.2 0.00 0.00 0.00 83 1010.2
20260505190508 26 81 1.6 3.2 0.00 0.00 0.00 83 1010.4
20260505190409 26 79 3.2 3.2 0.00 0.00 0.00 83 1010.1
20260505190309 26 77 3.2 3.2 0.00 0.00 0.00 83 1010.4
20260505190230 26 75 3.2 3.2 0.00 0.00 0.00 83 1010.4
20260505190109 26 74 3.2 6.4 0.00 0.00 0.00 83 1010.2
20260505190031 26 74 3.2 6.4 0.00 0.00 0.00 83 1010.3
20260505185909 26 74 0.0 6.4 0.00 0.00 0.00 83 1010.4
20260505185829 26 75 0.0 6.4 0.00 0.00 0.00 83 1010.4
20260505185730 26 80 1.6 6.4 0.00 0.00 0.00 82 1010.4
20260505185608 26 84 3.2 6.4 0.00 0.00 0.00 82 1010.4
20260505185508 26 86 0.0 6.4 0.00 0.00 0.00 82 1010.4
20260505185409 26 86 0.0 6.4 0.00 0.00 0.00 82 1010.4
20260505185309 26 83 3.2 6.4 0.00 0.00 0.00 82 1010.3
20260505185208 26 83 3.2 6.4 0.00 0.00 0.00 82 1010.3
20260505185108 26 85 3.2 6.4 0.00 0.00 0.00 82 1010.4
20260505185008 26 85 3.2 6.4 0.00 0.00 0.00 82 1010.3
20260505184909 26 85 4.8 6.4 0.00 0.00 0.00 82 1010.3
20260505184808 26 84 3.2 6.4 0.00 0.00 0.00 82 1010.4
20260505184708 26 79 4.8 6.4 0.00 0.00 0.00 81 1010.3
20260505184608 26 75 3.2 6.4 0.00 0.00 0.00 81 1010.3
20260505184530 26 74 1.6 6.4 0.00 0.00 0.00 81 1010.4
20260505184430 26 75 1.6 6.4 0.00 0.00 0.00 81 1010.3
20260505184308 26 81 1.6 6.4 0.00 0.00 0.00 81 1010.3
20260505184208 26 82 3.2 6.4 0.00 0.00 0.00 81 1010.2
20260505184108 26 81 3.2 6.4 0.00 0.00 0.00 82 1010.3
20260505184008 26 76 3.2 6.4 0.00 0.00 0.00 82 1010.3
20260505183908 26 72 3.2 6.4 0.00 0.00 0.00 82 1010.4
20260505183808 26 70 3.2 6.4 0.00 0.00 0.00 82 1010.4
20260505183708 26 70 3.2 6.4 0.00 0.00 0.00 82 1010.4
20260505183608 26 68 4.8 6.4 0.00 0.00 0.00 82 1010.4
20260505183529 26 65 3.2 6.4 0.00 0.00 0.00 82 1010.4
20260505183408 26 66 3.2 6.4 0.00 0.00 0.00 82 1010.2
20260505183330 26 66 3.2 6.4 0.00 0.00 0.00 82 1010.5
20260505183209 26 58 3.2 6.4 0.00 0.00 0.00 82 1010.6
20260505183108 26 58 1.6 6.4 0.00 0.00 0.00 82 1010.3
20260505183009 26 64 3.2 6.4 0.00 0.00 0.00 82 1010.5
20260505182930 26 69 3.2 6.4 0.00 0.00 0.00 81 1010.5
20260505182808 26 74 1.6 6.4 0.00 0.00 0.00 81 1010.5
20260505182708 26 79 1.6 6.4 0.00 0.00 0.00 81 1010.6
20260505182608 26 88 3.2 6.4 0.00 0.00 0.00 81 1010.7
20260505182508 26 89 1.6 6.4 0.00 0.00 0.00 81 1010.5
20260505182408 26 89 0.0 6.4 0.00 0.00 0.00 82 1010.4
20260505182308 26 91 3.2 6.4 0.00 0.00 0.00 82 1010.4
20260505182208 26 93 3.2 6.4 0.00 0.00 0.00 81 1010.4
20260505182108 26 94 1.6 6.4 0.00 0.00 0.00 81 1010.4
20260505182008 26 91 3.2 6.4 0.00 0.00 0.00 81 1010.5
20260505181908 26 91 3.2 6.4 0.00 0.00 0.00 81 1010.4
20260505181808 26 89 3.2 6.4 0.00 0.00 0.00 81 1010.5
20260505181709 26 88 3.2 6.4 0.00 0.00 0.00 81 1010.4
20260505181630 26 84 4.8 6.4 0.00 0.00 0.00 80 1010.4
20260505181508 26 71 3.2 6.4 0.00 0.00 0.00 80 1010.2
20260505181408 26 54 3.2 6.4 0.00 0.00 0.00 80 1010.2
20260505181308 27 40 3.2 6.4 0.00 0.00 0.00 79 1010.2
20260505181209 27 20 3.2 6.4 0.00 0.00 0.00 79 1010.3
20260505181108 27 6 3.2 6.4 0.00 0.00 0.00 80 1010.4
20260505181008 27 357 4.8 6.4 0.00 0.00 0.00 79 1010.3
20260505180908 27 349 3.2 6.4 0.00 0.00 0.00 79 1010.3
20260505180830 26 347 3.2 6.4 0.00 0.00 0.00 80 1010.2
20260505180708 26 355 1.6 6.4 0.00 0.00 0.00 80 1010.3
20260505180630 26 360 1.6 6.4 0.00 0.00 0.00 80 1010.3
20260505180508 26 13 3.2 6.4 0.00 0.00 0.00 80 1010.4
20260505180408 26 20 3.2 6.4 0.00 0.00 0.00 81 1010.5
20260505180308 26 28 3.2 6.4 0.00 0.00 0.00 81 1010.3
20260505180208 26 40 3.2 6.4 0.00 0.00 0.00 81 1010.4
20260505180108 26 45 3.2 6.4 0.00 0.00 0.00 81 1010.5
20260505180009 26 48 1.6 6.4 0.00 0.00 0.00 81 1010.4
20260505175909 26 42 3.2 6.4 0.00 0.00 0.00 82 1010.5
20260505175809 26 34 1.6 6.4 0.00 0.00 0.00 82 1010.3
20260505175709 26 30 0.0 6.4 0.00 0.00 0.00 83 1010.5
20260505175608 26 24 3.2 6.4 0.00 0.00 0.00 82 1010.5
20260505175509 26 21 3.2 6.4 0.00 0.00 0.00 82 1010.4
20260505175430 26 20 3.2 6.4 0.00 0.00 0.00 82 1010.4
20260505175309 26 19 3.2 6.4 0.00 0.00 0.00 83 1010.5
20260505175208 26 16 3.2 9.7 0.00 0.00 0.00 82 1010.6
20260505175130 26 16 3.2 9.7 0.00 0.00 0.00 83 1010.5
20260505175009 26 15 3.2 9.7 0.00 0.00 0.00 83 1010.5
20260505174909 25 17 3.2 9.7 0.00 0.00 0.00 83 1010.4
20260505174830 25 21 3.2 9.7 0.00 0.00 0.00 83 1010.6
20260505174708 25 24 4.8 9.7 0.00 0.00 0.00 83 1010.5
20260505174609 25 28 4.8 9.7 0.00 0.00 0.00 83 1010.7
20260505174510 25 29 3.2 9.7 0.00 0.00 0.00 83 1010.6
20260505174409 26 32 3.2 9.7 0.00 0.00 0.00 83 1010.5
20260505174309 26 33 6.4 9.7 0.00 0.00 0.00 83 1010.5
20260505174209 26 33 6.4 9.7 0.00 0.00 0.00 82 1010.5
20260505174129 26 31 3.2 9.7 0.00 0.00 0.00 82 1010.5
20260505174030 26 31 4.8 9.7 0.00 0.00 0.00 82 1010.6
20260505173908 25 32 1.6 6.4 0.00 0.00 0.00 83 1010.8
20260505173808 25 32 3.2 6.4 0.00 0.00 0.00 83 1010.8
20260505173708 25 32 4.8 6.4 0.00 0.00 0.00 83 1010.8
20260505173608 25 31 6.4 6.4 0.00 0.00 0.00 83 1010.9
20260505173508 25 29 4.8 6.4 0.00 0.00 0.00 83 1010.8
20260505173408 25 28 4.8 6.4 0.00 0.00 0.00 83 1010.8
20260505173308 25 30 3.2 6.4 0.00 0.00 0.00 84 1010.9
20260505173208 25 32 3.2 6.4 0.00 0.00 0.00 84 1010.9
20260505173108 25 35 3.2 6.4 0.00 0.00 0.00 84 1010.9
20260505173009 25 37 3.2 6.4 0.00 0.00 0.00 84 1010.8
20260505172908 25 39 3.2 6.4 0.00 0.00 0.00 84 1010.8
20260505172830 25 39 3.2 6.4 0.00 0.00 0.00 84 1010.8
20260505172708 25 37 3.2 3.2 0.00 0.00 0.00 85 1010.9
20260505172608 25 33 3.2 6.4 0.00 0.00 0.00 85 1010.9
20260505172508 25 31 1.6 6.4 0.00 0.00 0.00 85 1011.0
20260505172408 25 28 1.6 6.4 0.00 0.00 0.00 85 1011.0
20260505172329 25 25 1.6 6.4 0.00 0.00 0.00 85 1010.9
20260505172209 25 22 3.2 6.4 0.00 0.00 0.00 85 1010.9
20260505172108 25 23 0.0 6.4 0.00 0.00 0.00 85 1010.9
20260505172008 25 25 0.0 6.4 0.00 0.00 0.00 85 1010.9
20260505171908 25 24 0.0 6.4 0.00 0.00 0.00 85 1011.0
20260505171808 25 24 3.2 6.4 0.00 0.00 0.00 85 1010.8
20260505171708 25 23 3.2 6.4 0.00 0.00 0.00 85 1010.8
20260505171608 25 26 3.2 6.4 0.00 0.00 0.00 85 1011.1
20260505171508 25 28 1.6 3.2 0.00 0.00 0.00 86 1011.0
20260505171408 25 31 1.6 3.2 0.00 0.00 0.00 86 1011.0
20260505171330 25 33 3.2 3.2 0.00 0.00 0.00 86 1010.9
20260505171208 25 36 1.6 3.2 0.00 0.00 0.00 86 1010.8
20260505171108 25 37 1.6 3.2 0.00 0.00 0.00 86 1010.9
20260505171029 25 37 1.6 3.2 0.00 0.00 0.00 86 1010.9
20260505170908 24 39 3.2 3.2 0.00 0.00 0.00 86 1010.9
20260505170808 24 42 1.6 3.2 0.00 0.00 0.00 86 1010.9
20260505170708 24 45 1.6 3.2 0.00 0.00 0.00 86 1010.8
20260505170629 24 45 1.6 3.2 0.00 0.00 0.00 86 1010.8
20260505170508 24 45 1.6 6.4 0.00 0.00 0.00 87 1010.8
20260505170408 24 43 3.2 6.4 0.00 0.00 0.00 86 1011.0
20260505170308 24 44 3.2 6.4 0.00 0.00 0.00 87 1011.1
20260505170230 24 45 3.2 6.4 0.00 0.00 0.00 87 1011.1
20260505170109 24 45 3.2 6.4 0.00 0.00 0.00 87 1011.1
20260505170009 24 42 1.6 6.4 0.00 0.00 0.00 87 1011.1
20260505165908 24 39 1.6 6.4 0.00 0.00 0.00 87 1011.1
20260505165808 24 36 1.6 6.4 0.00 0.00 0.00 87 1011.0
20260505165730 24 35 1.6 6.4 0.00 0.00 0.00 87 1011.0
20260505165608 24 32 3.2 6.4 0.00 0.00 0.00 87 1010.9
20260505165508 24 31 1.6 6.4 0.00 0.00 0.00 88 1010.9
20260505165429 24 31 1.6 6.4 0.00 0.00 0.00 88 1010.9
20260505165308 24 28 3.2 6.4 0.00 0.00 0.00 88 1010.8
20260505165208 24 25 3.2 9.7 0.00 0.00 0.00 88 1010.9
20260505165108 24 25 3.2 9.7 0.00 0.00 0.00 88 1010.8
20260505165008 24 25 4.8 11.3 0.00 0.00 0.00 88 1010.9
20260505164908 24 23 4.8 11.3 0.00 0.00 0.00 88 1010.9
20260505164808 24 23 3.2 11.3 0.00 0.00 0.00 88 1011.2
20260505164708 23 25 3.2 11.3 0.00 0.00 0.00 88 1011.1
20260505164608 23 28 3.2 11.3 0.00 0.00 0.00 88 1011.1
20260505164508 23 27 4.8 11.3 0.00 0.00 0.00 88 1011.1
20260505164429 23 26 3.2 11.3 0.00 0.00 0.00 88 1011.2
20260505164308 23 26 3.2 11.3 0.00 0.00 0.00 88 1011.4
20260505164208 23 25 6.4 11.3 0.00 0.00 0.00 88 1011.2
20260505164108 23 24 4.8 11.3 0.00 0.00 0.00 88 1011.3
20260505164029 23 23 6.4 11.3 0.00 0.00 0.00 88 1011.4
20260505163908 23 26 4.8 11.3 0.00 0.00 0.00 88 1011.4
20260505163808 23 26 4.8 11.3 0.00 0.00 0.00 88 1011.4
20260505163708 23 24 6.4 11.3 0.00 0.00 0.00 88 1011.4
20260505163608 23 20 6.4 11.3 0.00 0.00 0.00 88 1011.4
20260505163509 23 18 4.8 11.3 0.00 0.00 0.00 89 1011.2
20260505163430 23 17 4.8 11.3 0.00 0.00 0.00 89 1011.2
20260505163308 23 15 6.4 9.7 0.00 0.00 0.00 89 1011.3
20260505163209 23 16 4.8 6.4 0.00 0.00 0.00 89 1011.5
20260505163108 23 16 3.2 6.4 0.00 0.00 0.00 89 1011.4
20260505163009 23 14 3.2 6.4 0.00 0.00 0.00 89 1011.3
20260505162909 23 11 3.2 6.4 0.00 0.00 0.00 89 1011.4
20260505162830 23 10 3.2 6.4 0.00 0.00 0.00 89 1011.4
20260505162709 23 14 3.2 6.4 0.00 0.00 0.00 89 1011.3
20260505162608 23 12 3.2 6.4 0.00 0.00 0.00 89 1011.5
20260505162508 23 15 0.0 3.2 0.00 0.00 0.00 90 1011.5
20260505162408 23 12 0.0 3.2 0.00 0.00 0.00 90 1011.6
20260505162330 23 14 1.6 6.4 0.00 0.00 0.00 90 1011.5
20260505162208 23 21 0.0 6.4 0.00 0.00 0.00 90 1011.7
20260505162108 23 21 1.6 6.4 0.00 0.00 0.00 90 1011.6
20260505162029 23 25 0.0 6.4 0.00 0.00 0.00 90 1011.7
20260505161909 23 22 3.2 6.4 0.00 0.00 0.00 90 1011.6
20260505161808 23 25 1.6 6.4 0.00 0.00 0.00 90 1011.5
20260505161708 23 27 3.2 6.4 0.00 0.00 0.00 90 1011.6
20260505161629 23 30 3.2 9.7 0.00 0.00 0.00 90 1011.6
20260505161529 23 33 3.2 9.7 0.00 0.00 0.00 90 1011.5
20260505161408 23 35 3.2 9.7 0.00 0.00 0.00 90 1011.8
20260505161330 23 36 3.2 9.7 0.00 0.00 0.00 91 1011.7
20260505161208 23 35 4.8 9.7 0.00 0.00 0.00 90 1011.6
20260505161109 23 34 6.4 9.7 0.00 0.00 0.00 91 1011.7
20260505161008 23 31 3.2 9.7 0.00 0.00 0.00 91 1011.7
20260505160909 23 32 3.2 9.7 0.00 0.00 0.00 91 1011.6
20260505160830 23 31 4.8 9.7 0.00 0.00 0.00 91 1011.6
20260505160708 23 29 6.4 9.7 0.00 0.00 0.00 91 1011.6
20260505160630 23 29 6.4 11.3 0.00 0.00 0.00 91 1011.6
20260505160508 22 25 4.8 11.3 0.00 0.00 0.00 91 1011.8
20260505160408 22 26 3.2 11.3 0.00 0.00 0.00 91 1011.7
20260505160308 22 25 4.8 11.3 0.00 0.00 0.00 91 1011.7
20260505160208 22 26 6.4 11.3 0.00 0.00 0.00 91 1011.9
20260505160108 22 26 3.2 11.3 0.00 0.00 0.00 91 1011.8
20260505153309 22 35 3.2 11.3 0.00 0.00 0.00 92 1011.9
20260505153208 22 35 6.4 11.3 0.00 0.00 0.00 92 1011.8
20260505153108 22 34 6.4 11.3 0.00 0.00 0.00 92 1011.9
20260505153009 22 36 6.4 11.3 0.00 0.00 0.00 92 1012.0
20260505152908 22 35 6.4 11.3 0.00 0.00 0.00 92 1012.0
20260505152829 22 34 6.4 9.7 0.00 0.00 0.00 93 1012.0
20260505152708 22 37 1.6 6.4 0.00 0.00 0.00 93 1011.9
20260505152608 22 40 1.6 6.4 0.00 0.00 0.00 93 1011.9
20260505152508 22 43 3.2 6.4 0.00 0.00 0.00 93 1012.1
20260505152408 22 45 4.8 9.7 0.00 0.00 0.00 93 1012.1
20260505152308 22 42 3.2 9.7 0.00 0.00 0.00 93 1012.1
20260505152230 22 41 3.2 11.3 0.00 0.00 0.00 93 1012.1
20260505152108 22 38 3.2 11.3 0.00 0.00 0.00 93 1011.9
20260505152009 22 35 3.2 11.3 0.00 0.00 0.00 93 1012.0
20260505151929 22 32 3.2 11.3 0.00 0.00 0.00 93 1012.0
20260505151831 22 28 3.2 11.3 0.00 0.00 0.00 93 1011.8
20260505151708 22 24 4.8 11.3 0.00 0.00 0.00 93 1011.8
20260505151609 22 22 4.8 11.3 0.00 0.00 0.00 93 1012.0
20260505151508 22 17 4.8 11.3 0.00 0.00 0.00 93 1011.8
20260505151408 22 15 4.8 11.3 0.00 0.00 0.00 93 1012.0
20260505151308 22 16 3.2 11.3 0.00 0.00 0.00 93 1012.0
20260505151208 22 11 4.8 11.3 0.00 0.00 0.00 93 1012.1
20260505151108 22 12 3.2 9.7 0.00 0.00 0.00 93 1012.1
20260505151008 22 9 3.2 9.7 0.00 0.00 0.00 93 1012.0
20260505150908 22 10 4.8 9.7 0.00 0.00 0.00 93 1012.0
20260505150808 22 13 4.8 9.7 0.00 0.00 0.00 93 1012.1
20260505150730 22 13 4.8 9.7 0.00 0.00 0.00 93 1012.1
20260505150608 22 12 3.2 9.7 0.00 0.00 0.00 92 1012.0
20260505150508 22 13 3.2 11.3 0.00 0.00 0.00 92 1012.1
20260505150408 22 14 3.2 11.3 0.00 0.00 0.00 92 1012.2
20260505150330 22 12 3.2 11.3 0.00 0.00 0.00 92 1012.0
20260505150208 22 12 4.8 11.3 0.00 0.00 0.00 92 1012.0
20260505150108 22 13 4.8 11.3 0.00 0.00 0.00 92 1012.0
20260505140608 21 9 3.2 6.4 0.00 0.00 0.00 90 1012.7
20260505140508 21 7 3.2 6.4 0.00 0.00 0.00 90 1012.7
20260505140408 21 4 4.8 6.4 0.00 0.00 0.00 90 1012.6
20260505140330 21 4 4.8 9.7 0.00 0.00 0.00 90 1012.9
20260505140208 21 5 3.2 9.7 0.00 0.00 0.00 91 1012.7
20260505140108 21 7 3.2 9.7 0.00 0.00 0.00 91 1012.8
20260505130308 20 16 3.2 9.7 0.00 0.00 0.00 95 1012.8
20260505130208 19 15 3.2 9.7 0.00 0.00 0.00 95 1012.9
20260505130108 19 15 1.6 9.7 0.00 0.00 0.00 95 1012.9
20260505125008 19 31 3.2 9.7 0.00 0.00 0.00 96 1012.8
20260505124908 19 31 3.2 9.7 0.00 0.00 0.00 96 1012.7
20260505124829 19 31 3.2 9.7 0.00 0.00 0.00 96 1012.6
20260505124708 19 29 3.2 9.7 0.00 0.00 0.00 96 1012.6
20260505124630 19 29 3.2 9.7 0.00 0.00 0.00 96 1012.6
20260505124508 19 27 4.8 9.7 0.00 0.00 0.00 96 1012.6
20260505124408 19 30 3.2 9.7 0.00 0.00 0.00 96 1012.6
20260505124308 19 28 4.8 6.4 0.00 0.00 0.00 96 1012.8
20260505124208 19 24 4.8 6.4 0.00 0.00 0.00 96 1012.8
20260505124108 19 23 3.2 9.7 0.00 0.00 0.00 96 1012.8
20260505124008 19 23 3.2 9.7 0.00 0.00 0.00 96 1012.7
20260505123929 19 25 3.2 9.7 0.00 0.00 0.00 96 1012.6
20260505123808 19 23 3.2 9.7 0.00 0.00 0.00 96 1012.9
20260505123708 19 23 4.8 9.7 0.00 0.00 0.00 96 1012.7
20260505123608 19 25 3.2 9.7 0.00 0.00 0.00 96 1012.8
20260505123508 18 25 4.8 9.7 0.00 0.00 0.00 96 1012.7
20260505123408 18 23 4.8 9.7 0.00 0.00 0.00 96 1012.7
20260505123330 18 25 3.2 9.7 0.00 0.00 0.00 96 1012.7
20260505123208 18 30 3.2 9.7 0.00 0.00 0.00 96 1012.5
20260505123130 18 33 6.4 9.7 0.00 0.00 0.00 96 1012.7
20260505123009 18 35 4.8 9.7 0.00 0.00 0.00 96 1012.7
20260505122908 18 34 3.2 9.7 0.00 0.00 0.00 96 1012.5
20260505122808 18 37 3.2 9.7 0.00 0.00 0.00 96 1012.7
20260505122708 18 39 3.2 9.7 0.00 0.00 0.00 96 1012.7
20260505122608 18 39 3.2 9.7 0.00 0.00 0.00 96 1012.7
20260505122508 18 39 3.2 9.7 0.00 0.00 0.00 96 1012.7
20260505122430 18 39 3.2 9.7 0.00 0.00 0.00 96 1012.7
20260505122308 18 36 6.4 9.7 0.00 0.00 0.00 96 1012.7
20260505122208 18 34 6.4 9.7 0.00 0.00 0.00 96 1012.6
20260505122108 18 31 3.2 6.4 0.00 0.00 0.00 96 1012.6
20260505122008 18 28 4.8 6.4 0.00 0.00 0.00 96 1012.7
20260505121929 18 28 3.2 6.4 0.00 0.00 0.00 96 1012.4
20260505121808 18 29 4.8 6.4 0.00 0.00 0.00 96 1012.5
20260505121729 18 28 3.2 6.4 0.00 0.00 0.00 96 1012.5
20260505121608 18 29 3.2 6.4 0.00 0.00 0.00 96 1012.3
20260505121529 18 28 3.2 6.4 0.00 0.00 0.00 96 1012.5
20260505121408 18 30 4.8 6.4 0.00 0.00 0.00 96 1012.5
20260505121330 18 30 1.6 6.4 0.00 0.00 0.00 96 1012.5
20260505121230 18 30 3.2 6.4 0.00 0.00 0.00 96 1012.3
20260505121108 18 30 3.2 9.7 0.00 0.00 0.00 96 1012.4
20260505121009 18 32 3.2 9.7 0.00 0.00 0.00 96 1012.4
20260505120908 18 31 4.8 9.7 0.00 0.00 0.00 96 1012.5
20260505120808 18 29 3.2 9.7 0.00 0.00 0.00 96 1012.5
20260505120708 18 29 4.8 9.7 0.00 0.00 0.00 96 1012.5
20260505120608 18 29 1.6 9.7 0.00 0.00 0.00 96 1012.7
20260505120531 18 30 3.2 9.7 0.00 0.00 0.00 96 1012.4
20260505120408 18 31 3.2 9.7 0.00 0.00 0.00 96 1012.5
20260505120308 18 32 3.2 9.7 0.00 0.00 0.00 96 1012.5
20260505120224 18 32 3.2 9.7 0.00 0.00 0.00 96 1012.4
20260505120129 18 32 6.4 9.7 0.00 0.00 0.00 96 1012.4
20260505120009 18 31 3.2 6.4 0.00 0.00 0.00 96 1012.3
20260505115908 18 30 3.2 6.4 0.00 0.00 0.00 96 1012.5
20260505115808 18 30 3.2 6.4 0.00 0.00 0.00 96 1012.3
20260505115729 18 30 3.2 6.4 0.00 0.00 0.00 96 1012.4
20260505115608 18 28 3.2 6.4 0.00 0.00 0.00 96 1012.4
20260505115508 18 28 3.2 6.4 0.00 0.00 0.00 96 1012.3
20260505115408 18 25 3.2 9.7 0.00 0.00 0.00 96 1012.4
20260505115308 18 24 3.2 9.7 0.00 0.00 0.00 96 1012.4
20260505115208 18 24 3.2 9.7 0.00 0.00 0.00 96 1012.3
20260505115108 18 24 3.2 9.7 0.00 0.00 0.00 96 1012.4
20260505115008 18 24 3.2 9.7 0.00 0.00 0.00 96 1012.3
20260505114908 18 24 3.2 9.7 0.00 0.00 0.00 96 1012.5
20260505114808 18 25 3.2 9.7 0.00 0.00 0.00 96 1012.3
20260505114708 18 27 3.2 9.7 0.00 0.00 0.00 96 1012.2
20260505114608 18 28 3.2 9.7 0.00 0.00 0.00 96 1011.9
20260505114508 18 28 3.2 9.7 0.00 0.00 0.00 96 1012.1
20260505114429 18 28 4.8 9.7 0.00 0.00 0.00 96 1012.1
20260505114308 18 29 3.2 6.4 0.00 0.00 0.00 96 1012.1
20260505114208 18 31 3.2 6.4 0.00 0.00 0.00 96 1012.1
20260505114108 18 31 3.2 6.4 0.00 0.00 0.00 96 1012.1
20260505114008 18 33 3.2 6.4 0.00 0.00 0.00 96 1012.1
20260505113908 18 36 3.2 6.4 0.00 0.00 0.00 96 1012.0
20260505113829 18 37 3.2 6.4 0.00 0.00 0.00 96 1012.0
20260505113730 18 38 3.2 6.4 0.00 0.00 0.00 96 1011.9
20260505113608 18 35 3.2 6.4 0.00 0.00 0.00 96 1012.1
20260505113508 18 33 3.2 6.4 0.00 0.00 0.00 96 1012.0
20260505113408 18 33 3.2 6.4 0.00 0.00 0.00 96 1012.0
20260505113308 18 35 3.2 6.4 0.00 0.00 0.00 96 1012.0
20260505113208 18 34 3.2 6.4 0.00 0.00 0.00 96 1012.0
20260505113108 18 35 3.2 6.4 0.00 0.00 0.00 96 1011.9
20260505113009 18 35 3.2 6.4 0.00 0.00 0.00 96 1012.0
20260505112908 18 35 3.2 6.4 0.00 0.00 0.00 96 1011.9
20260505112808 18 33 3.2 6.4 0.00 0.00 0.00 96 1012.0
20260505112708 18 34 3.2 6.4 0.00 0.00 0.00 96 1011.9
20260505112630 18 37 3.2 6.4 0.00 0.00 0.00 96 1011.9
20260505112508 18 43 3.2 6.4 0.00 0.00 0.00 96 1011.9
20260505112408 18 47 3.2 6.4 0.00 0.00 0.00 96 1011.9
20260505112308 18 48 1.6 6.4 0.00 0.00 0.00 96 1011.8
20260505112208 18 50 3.2 6.4 0.00 0.00 0.00 96 1011.9
20260505112129 18 50 3.2 6.4 0.00 0.00 0.00 96 1011.7
20260505112008 18 52 1.6 6.4 0.00 0.00 0.00 96 1011.7
20260505111908 18 53 3.2 6.4 0.00 0.00 0.00 96 1011.9
20260505111830 18 54 3.2 6.4 0.00 0.00 0.00 96 1011.9
20260505111708 18 53 3.2 6.4 0.00 0.00 0.00 96 1011.6
20260505111608 18 50 3.2 6.4 0.00 0.00 0.00 96 1011.6
20260505111508 18 45 0.0 3.2 0.00 0.00 0.00 96 1011.6
20260505111408 18 45 0.0 3.2 0.00 0.00 0.00 96 1011.6
20260505111308 18 45 0.0 3.2 0.00 0.00 0.00 96 1011.6
20260505111208 18 45 3.2 3.2 0.00 0.00 0.00 96 1011.7
20260505111108 18 45 3.2 3.2 0.00 0.00 0.00 96 1011.8
20260505111008 18 45 1.6 3.2 0.00 0.00 0.00 96 1011.8
20260505110929 18 45 1.6 3.2 0.00 0.00 0.00 96 1011.8
20260505110808 18 45 0.0 3.2 0.00 0.00 0.00 96 1011.8
20260505110708 17 0 0.0 0.0 0.00 0.00 0.00 96 1011.9
20260505110608 17 0 0.0 0.0 0.00 0.00 0.00 96 1011.9
20260505110508 17 22 0.0 3.2 0.00 0.00 0.00 96 1012.0
20260505110429 17 22 0.0 3.2 0.00 0.00 0.00 96 1011.9
20260505110308 17 22 0.0 3.2 0.00 0.00 0.00 96 1012.1
20260505110229 17 22 0.0 3.2 0.00 0.00 0.00 96 1012.1
20260505110130 17 22 0.0 3.2 0.00 0.00 0.00 96 1012.0
20260505102208 17 0 0.0 0.0 0.00 0.00 0.00 95 1011.6
20260505102108 17 0 0.0 0.0 0.00 0.00 0.00 95 1011.5
20260505102008 17 0 0.0 0.0 0.00 0.00 0.00 95 1011.5
20260505101908 17 0 0.0 0.0 0.00 0.00 0.00 95 1011.5
20260505101829 17 0 0.0 0.0 0.00 0.00 0.00 95 1011.5
20260505101708 17 0 0.0 0.0 0.00 0.00 0.00 95 1011.5
20260505101608 17 0 0.0 0.0 0.00 0.00 0.00 95 1011.6
20260505101508 17 0 0.0 0.0 0.00 0.00 0.00 95 1011.6
20260505101408 17 0 0.0 0.0 0.00 0.00 0.00 95 1011.6
20260505101308 17 0 0.0 0.0 0.00 0.00 0.00 95 1011.5
20260505101208 17 0 0.0 0.0 0.00 0.00 0.00 95 1011.4
20260505101108 17 0 0.0 0.0 0.00 0.00 0.00 95 1011.4
20260505101029 17 0 0.0 0.0 0.00 0.00 0.00 95 1011.4
20260505100908 17 0 0.0 0.0 0.00 0.00 0.00 95 1011.5
20260505100808 17 0 0.0 0.0 0.00 0.00 0.00 95 1011.5
20260505100708 17 0 0.0 0.0 0.00 0.00 0.00 95 1011.5
20260505100608 17 0 0.0 0.0 0.00 0.00 0.00 95 1011.4
20260505100508 17 0 0.0 0.0 0.00 0.00 0.00 95 1011.4
20260505100408 17 0 0.0 0.0 0.00 0.00 0.00 95 1011.4
20260505100330 17 0 0.0 0.0 0.00 0.00 0.00 95 1011.4
20260505100208 17 0 0.0 0.0 0.00 0.00 0.00 95 1011.5
20260505100108 17 0 0.0 0.0 0.00 0.00 0.00 95 1011.6
20260505100009 17 0 0.0 0.0 0.00 0.00 0.00 95 1011.3
20260505095908 17 0 0.0 0.0 0.00 0.00 0.00 95 1011.5
20260505095829 17 0 0.0 0.0 0.00 0.00 0.00 95 1011.5
20260505095729 17 0 0.0 0.0 0.00 0.00 0.00 95 1011.4
20260505095608 17 0 0.0 0.0 0.00 0.00 0.00 95 1011.3
20260505095508 17 0 0.0 0.0 0.00 0.00 0.00 95 1011.4
20260505095429 17 0 0.0 0.0 0.00 0.00 0.00 95 1011.4
20260505095308 17 360 0.0 3.2 0.00 0.00 0.00 95 1011.2
20260505095229 17 360 0.0 3.2 0.00 0.00 0.00 95 1011.4
20260505095129 17 360 0.0 3.2 0.00 0.00 0.00 95 1011.3
20260505095008 17 360 0.0 3.2 0.00 0.00 0.00 95 1011.2
20260505094908 17 360 0.0 3.2 0.00 0.00 0.00 95 1011.2
20260505094808 17 1 0.0 3.2 0.00 0.00 0.00 95 1011.3
20260505094729 17 4 0.0 3.2 0.00 0.00 0.00 95 1011.2
20260505094608 17 7 0.0 3.2 0.00 0.00 0.00 95 1011.2
20260505094529 17 8 0.0 3.2 0.00 0.00 0.00 95 1011.0
20260505094408 17 10 0.0 3.2 0.00 0.00 0.00 95 1011.1
20260505094308 17 9 1.6 3.2 0.00 0.00 0.00 95 1011.1
20260505094229 17 9 1.6 3.2 0.00 0.00 0.00 95 1011.1
20260505094108 17 9 3.2 3.2 0.00 0.00 0.00 95 1011.2
20260505094008 17 8 3.2 3.2 0.00 0.00 0.00 95 1011.2
20260505093908 17 9 3.2 3.2 0.00 0.00 0.00 95 1011.1
20260505093809 17 9 3.2 3.2 0.00 0.00 0.00 95 1011.3
20260505093708 17 8 3.2 3.2 0.00 0.00 0.00 95 1010.9
20260505093608 17 5 1.6 3.2 0.00 0.00 0.00 94 1011.1
20260505093508 17 1 1.6 3.2 0.00 0.00 0.00 94 1011.1
20260505093408 17 356 1.6 3.2 0.00 0.00 0.00 94 1011.1
20260505093308 17 354 1.6 3.2 0.00 0.00 0.00 94 1011.2
20260505093208 17 351 3.2 3.2 0.00 0.00 0.00 94 1011.0
20260505093108 17 337 1.6 3.2 0.00 0.00 0.00 94 1011.2
20260505093030 17 337 1.6 3.2 0.00 0.00 0.00 94 1011.2
20260505092908 17 0 0.0 0.0 0.00 0.00 0.00 94 1011.2
20260505092808 17 0 0.0 0.0 0.00 0.00 0.00 94 1011.1
20260505092708 17 0 0.0 0.0 0.00 0.00 0.00 94 1011.1
20260505092608 17 0 0.0 0.0 0.00 0.00 0.00 94 1010.9
20260505092529 17 0 0.0 0.0 0.00 0.00 0.00 94 1010.8
20260505092408 17 0 0.0 0.0 0.00 0.00 0.00 94 1011.0
20260505092308 17 0 0.0 0.0 0.00 0.00 0.00 94 1011.1
20260505092208 17 0 0.0 0.0 0.00 0.00 0.00 94 1010.9
20260505092108 17 0 0.0 0.0 0.00 0.00 0.00 94 1011.0
20260505092008 17 337 0.0 3.2 0.00 0.00 0.00 94 1011.1
20260505091908 17 337 0.0 3.2 0.00 0.00 0.00 94 1011.0
20260505091808 17 337 0.0 3.2 0.00 0.00 0.00 94 1011.0
20260505091708 17 337 0.0 3.2 0.00 0.00 0.00 94 1011.0
20260505091629 17 337 0.0 3.2 0.00 0.00 0.00 94 1010.9
20260505091508 17 337 0.0 3.2 0.00 0.00 0.00 94 1010.9
20260505091408 17 337 0.0 3.2 0.00 0.00 0.00 94 1010.9
20260505091308 17 337 0.0 3.2 0.00 0.00 0.00 94 1010.8
20260505091230 17 337 0.0 3.2 0.00 0.00 0.00 94 1010.8
20260505091108 17 337 1.6 3.2 0.00 0.00 0.00 94 1011.0
20260505091008 17 337 0.0 3.2 0.00 0.00 0.00 94 1010.8
20260505090908 17 337 0.0 3.2 0.00 0.00 0.00 94 1011.0
20260505090808 17 337 0.0 3.2 0.00 0.00 0.00 94 1010.9
20260505090708 17 337 1.6 3.2 0.00 0.00 0.00 94 1010.8
20260505090608 17 337 1.6 3.2 0.00 0.00 0.00 94 1010.8
20260505090508 17 337 1.6 3.2 0.00 0.00 0.00 94 1010.9
20260505090408 17 337 1.6 3.2 0.00 0.00 0.00 94 1010.8
20260505090308 17 337 0.0 3.2 0.00 0.00 0.00 94 1010.8
20260505090208 17 337 0.0 3.2 0.00 0.00 0.00 94 1010.9
20260505090108 17 337 0.0 3.2 0.00 0.00 0.00 94 1010.9
20260505090009 17 341 0.0 3.2 0.00 0.00 0.00 94 1010.9
20260505085908 17 346 3.2 3.2 0.00 0.00 0.00 94 1010.9
20260505085830 17 349 3.2 3.2 0.00 0.00 0.00 94 1010.9
20260505085708 17 357 1.6 3.2 0.00 0.00 0.00 94 1010.9
20260505085608 17 5 0.0 3.2 0.00 0.00 0.00 94 1010.8
20260505085508 17 10 0.0 6.4 0.00 0.00 0.00 94 1011.1
20260505085408 17 12 0.0 6.4 0.00 0.00 0.00 94 1010.7
20260505085308 17 13 0.0 6.4 0.00 0.00 0.00 94 1010.7
20260505085208 17 14 0.0 6.4 0.00 0.00 0.00 94 1010.8
20260505085108 17 16 1.6 6.4 0.00 0.00 0.00 94 1010.7
20260505085008 17 15 1.6 6.4 0.00 0.00 0.00 94 1010.7
20260505084908 17 16 1.6 6.4 0.00 0.00 0.00 94 1010.8
20260505084808 17 17 1.6 6.4 0.00 0.00 0.00 94 1010.7
20260505084708 17 16 3.2 6.4 0.00 0.00 0.00 94 1010.5
20260505084608 17 14 3.2 6.4 0.00 0.00 0.00 94 1010.6
20260505084508 17 12 3.2 6.4 0.00 0.00 0.00 94 1010.5
20260505084408 17 12 3.2 6.4 0.00 0.00 0.00 94 1010.4
20260505084308 17 12 3.2 6.4 0.00 0.00 0.00 94 1010.4
20260505084208 17 14 3.2 6.4 0.00 0.00 0.00 94 1010.3
20260505084108 17 14 3.2 6.4 0.00 0.00 0.00 94 1010.6
20260505084008 17 15 3.2 6.4 0.00 0.00 0.00 94 1010.6
20260505083908 17 15 3.2 6.4 0.00 0.00 0.00 94 1010.7
20260505083808 17 13 3.2 6.4 0.00 0.00 0.00 94 1010.5
20260505083708 17 15 4.8 6.4 0.00 0.00 0.00 94 1010.7
20260505083608 17 16 4.8 6.4 0.00 0.00 0.00 94 1010.5
20260505083508 17 18 3.2 6.4 0.00 0.00 0.00 94 1010.5
20260505083408 17 18 4.8 6.4 0.00 0.00 0.00 94 1010.5
20260505083308 17 18 3.2 6.4 0.00 0.00 0.00 94 1010.4
20260505083208 17 16 3.2 6.4 0.00 0.00 0.00 94 1010.4
20260505083108 17 14 4.8 6.4 0.00 0.00 0.00 94 1010.5
20260505083009 17 14 4.8 6.4 0.00 0.00 0.00 94 1010.6
20260505082908 17 14 3.2 6.4 0.00 0.00 0.00 94 1010.6
20260505082808 17 18 3.2 6.4 0.00 0.00 0.00 94 1010.7
20260505082708 17 18 3.2 6.4 0.00 0.00 0.00 93 1010.6
20260505082629 17 20 3.2 6.4 0.00 0.00 0.00 93 1010.6
20260505082508 17 21 3.2 6.4 0.00 0.00 0.00 93 1010.4
20260505082408 17 21 3.2 6.4 0.00 0.00 0.00 93 1010.6
20260505082308 17 21 3.2 6.4 0.00 0.00 0.00 93 1010.4
20260505082208 17 20 3.2 6.4 0.00 0.00 0.00 93 1010.5
20260505082108 17 19 3.2 6.4 0.00 0.00 0.00 93 1010.6
20260505082008 17 17 3.2 6.4 0.00 0.00 0.00 93 1010.5
20260505081908 17 16 3.2 6.4 0.00 0.00 0.00 93 1010.5
20260505081808 17 14 3.2 6.4 0.00 0.00 0.00 93 1010.5
20260505081708 17 14 3.2 6.4 0.00 0.00 0.00 93 1010.5
20260505081608 17 14 3.2 6.4 0.00 0.00 0.00 93 1010.5
20260505081529 17 12 3.2 6.4 0.00 0.00 0.00 93 1010.7
20260505081408 17 11 3.2 6.4 0.00 0.00 0.00 93 1010.6
20260505081308 17 9 3.2 6.4 0.00 0.00 0.00 93 1010.7
20260505081208 17 8 3.2 6.4 0.00 0.00 0.00 93 1010.8
20260505081129 17 7 3.2 6.4 0.00 0.00 0.00 93 1010.7
20260505081008 17 4 3.2 6.4 0.00 0.00 0.00 93 1010.8
20260505080908 17 4 3.2 6.4 0.00 0.00 0.00 93 1010.8
20260505080808 17 5 1.6 6.4 0.00 0.00 0.00 93 1010.7
20260505080730 17 8 3.2 6.4 0.00 0.00 0.00 93 1010.6
20260505080629 17 8 3.2 6.4 0.00 0.00 0.00 93 1010.7
20260505080508 17 8 3.2 3.2 0.00 0.00 0.00 93 1010.8
20260505080408 17 8 1.6 3.2 0.00 0.00 0.00 93 1010.8
20260505080329 17 8 1.6 3.2 0.00 0.00 0.00 93 1010.8
20260505080208 17 10 3.2 3.2 0.00 0.00 0.00 93 1010.9
20260505080108 17 17 1.6 3.2 0.00 0.00 0.00 93 1010.7
20260505080030 17 27 3.2 3.2 0.00 0.00 0.00 93 1010.6
20260505075908 17 41 3.2 3.2 0.00 0.00 0.00 93 1010.5
20260505075808 17 45 3.2 3.2 0.00 0.00 0.00 93 1010.6
20260505075708 17 45 1.6 3.2 0.00 0.00 0.00 93 1010.5
20260505075608 17 45 0.0 3.2 0.00 0.00 0.00 93 1010.6
20260505075508 17 45 0.0 3.2 0.00 0.00 0.00 93 1010.5
20260505075408 17 45 0.0 3.2 0.00 0.00 0.00 93 1010.7
20260505075308 17 45 0.0 3.2 0.00 0.00 0.00 93 1010.7
20260505075208 17 45 0.0 3.2 0.00 0.00 0.00 92 1010.6
20260505075108 17 45 1.6 3.2 0.00 0.00 0.00 92 1010.6
20260505075008 17 45 0.0 3.2 0.00 0.00 0.00 92 1010.6
20260505074908 17 42 0.0 3.2 0.00 0.00 0.00 92 1010.6
20260505074808 17 41 0.0 3.2 0.00 0.00 0.00 92 1010.4
20260505074708 17 40 0.0 3.2 0.00 0.00 0.00 92 1010.7
20260505074608 17 38 0.0 3.2 0.00 0.00 0.00 92 1010.6
20260505074429 17 35 0.0 3.2 0.00 0.00 0.00 92 1010.7
20260505074308 17 35 3.2 3.2 0.00 0.00 0.00 92 1010.6
20260505074208 17 35 3.2 3.2 0.00 0.00 0.00 92 1010.7
20260505074108 17 36 1.6 6.4 0.00 0.00 0.00 92 1010.7
20260505074008 17 37 3.2 6.4 0.00 0.00 0.00 92 1010.6
20260505073908 17 37 3.2 6.4 0.00 0.00 0.00 92 1010.5
20260505073808 17 35 3.2 6.4 0.00 0.00 0.00 92 1010.6
20260505073708 17 34 1.6 6.4 0.00 0.00 0.00 92 1010.6
20260505073608 17 34 3.2 6.4 0.00 0.00 0.00 92 1010.5
20260505073508 17 34 3.2 6.4 0.00 0.00 0.00 92 1010.6
20260505073408 17 33 3.2 6.4 0.00 0.00 0.00 92 1010.7
20260505073308 17 32 3.2 6.4 0.00 0.00 0.00 92 1010.7
20260505073208 17 30 3.2 6.4 0.00 0.00 0.00 92 1010.7
20260505073108 17 28 3.2 6.4 0.00 0.00 0.00 92 1010.6
20260505073009 17 25 3.2 6.4 0.00 0.00 0.00 92 1010.5
20260505072908 17 24 3.2 6.4 0.00 0.00 0.00 92 1010.6
20260505072808 17 24 3.2 6.4 0.00 0.00 0.00 92 1010.8
20260505072708 17 24 4.8 6.4 0.00 0.00 0.00 92 1010.7
20260505072608 17 22 3.2 6.4 0.00 0.00 0.00 92 1010.6
20260505072508 17 22 3.2 6.4 0.00 0.00 0.00 92 1010.7
20260505072408 17 21 3.2 6.4 0.00 0.00 0.00 92 1010.5
20260505072329 17 20 3.2 6.4 0.00 0.00 0.00 92 1010.9
20260505072208 17 17 3.2 6.4 0.00 0.00 0.00 92 1010.8
20260505072108 17 16 3.2 6.4 0.00 0.00 0.00 92 1010.9
20260505072008 17 13 3.2 6.4 0.00 0.00 0.00 92 1010.8
20260505071929 17 11 3.2 6.4 0.00 0.00 0.00 92 1010.8
20260505071808 17 7 3.2 6.4 0.00 0.00 0.00 92 1010.9
20260505071708 17 3 3.2 6.4 0.00 0.00 0.00 92 1010.7
20260505071608 17 357 3.2 6.4 0.00 0.00 0.00 92 1010.7
20260505071508 17 352 3.2 6.4 0.00 0.00 0.00 92 1010.9
20260505071430 17 350 3.2 6.4 0.00 0.00 0.00 92 1011.0
20260505071308 17 349 3.2 6.4 0.00 0.00 0.00 92 1010.9
20260505071229 17 347 3.2 6.4 0.00 0.00 0.00 92 1010.8
20260505071108 17 346 3.2 6.4 0.00 0.00 0.00 91 1010.9
20260505071008 17 346 3.2 6.4 0.00 0.00 0.00 91 1010.9
20260505070908 17 345 3.2 6.4 0.00 0.00 0.00 91 1010.8
20260505070808 17 343 3.2 6.4 0.00 0.00 0.00 91 1010.8
20260505070708 17 343 3.2 6.4 0.00 0.00 0.00 91 1011.0
20260505070629 17 343 3.2 6.4 0.00 0.00 0.00 91 1011.0
20260505070508 17 347 3.2 6.4 0.00 0.00 0.00 91 1010.9
20260505070408 17 348 3.2 9.7 0.00 0.00 0.00 91 1010.7
20260505070308 17 347 3.2 9.7 0.00 0.00 0.00 91 1010.9
20260505070208 17 350 3.2 9.7 0.00 0.00 0.00 91 1010.9
20260505070108 17 351 4.8 9.7 0.00 0.00 0.00 91 1010.9
20260505070030 17 350 4.8 9.7 0.00 0.00 0.00 91 1011.0
20260505065908 17 350 3.2 9.7 0.00 0.00 0.00 91 1010.8
20260505065829 17 350 3.2 9.7 0.00 0.00 0.00 91 1010.8
20260505065729 17 352 3.2 9.7 0.00 0.00 0.00 91 1010.9
20260505065608 17 355 3.2 9.7 0.00 0.00 0.00 91 1010.8
20260505065508 17 355 4.8 9.7 0.00 0.00 0.00 91 1010.9
20260505065408 17 355 4.8 9.7 0.00 0.00 0.00 91 1010.9
20260505065308 17 355 4.8 9.7 0.00 0.00 0.00 91 1010.8
20260505065208 17 353 3.2 9.7 0.00 0.00 0.00 91 1010.8
20260505065129 17 352 3.2 9.7 0.00 0.00 0.00 91 1010.8
20260505065008 17 356 3.2 9.7 0.00 0.00 0.00 91 1010.9
20260505064908 17 354 3.2 9.7 0.00 0.00 0.00 91 1011.0
20260505064829 17 354 3.2 9.7 0.00 0.00 0.00 91 1010.8
20260505064708 17 354 3.2 9.7 0.00 0.00 0.00 91 1010.9
20260505064608 17 354 4.8 11.3 0.00 0.00 0.00 91 1010.9
20260505064529 17 352 4.8 11.3 0.00 0.00 0.00 91 1010.9
20260505064408 17 353 4.8 11.3 0.00 0.00 0.00 91 1010.9
20260505064308 17 354 3.2 11.3 0.00 0.00 0.00 90 1010.9
20260505064208 17 356 4.8 11.3 0.00 0.00 0.00 90 1010.9
20260505064129 17 355 4.8 11.3 0.00 0.00 0.00 90 1010.8
20260505064008 17 352 4.8 11.3 0.00 0.00 0.00 90 1010.9
20260505063908 17 352 6.4 11.3 0.00 0.00 0.00 90 1010.9
20260505063808 17 353 6.4 11.3 0.00 0.00 0.00 90 1010.7
20260505063708 17 353 4.8 11.3 0.00 0.00 0.00 90 1010.7
20260505063608 17 353 6.4 11.3 0.00 0.00 0.00 90 1010.8
20260505063508 17 350 4.8 11.3 0.00 0.00 0.00 90 1010.7
20260505063408 17 349 6.4 11.3 0.00 0.00 0.00 90 1010.8
20260505063308 17 348 6.4 11.3 0.00 0.00 0.00 90 1010.6
20260505063208 17 346 3.2 9.7 0.00 0.00 0.00 90 1010.9
20260505063108 17 345 3.2 9.7 0.00 0.00 0.00 90 1010.5
20260505063030 17 345 3.2 9.7 0.00 0.00 0.00 90 1010.5
20260505062929 17 345 4.8 9.7 0.00 0.00 0.00 90 1010.7
20260505062808 17 342 6.4 9.7 0.00 0.00 0.00 90 1010.7
20260505062708 17 341 6.4 9.7 0.00 0.00 0.00 90 1010.8
20260505062608 17 339 6.4 9.7 0.00 0.00 0.00 90 1010.8
20260505062508 17 342 4.8 9.7 0.00 0.00 0.00 90 1010.7
20260505062408 17 344 4.8 9.7 0.00 0.00 0.00 90 1010.6
20260505062308 17 344 4.8 9.7 0.00 0.00 0.00 90 1010.7
20260505062208 17 342 4.8 9.7 0.00 0.00 0.00 90 1010.7
20260505062108 17 343 4.8 9.7 0.00 0.00 0.00 90 1010.7
20260505062008 17 343 4.8 9.7 0.00 0.00 0.00 90 1010.9
20260505061929 17 345 4.8 9.7 0.00 0.00 0.00 90 1010.8
20260505061808 17 346 4.8 9.7 0.00 0.00 0.00 89 1010.6
20260505061708 17 346 4.8 9.7 0.00 0.00 0.00 89 1010.7
20260505061608 17 346 3.2 9.7 0.00 0.00 0.00 89 1010.8
20260505061508 17 341 3.2 9.7 0.00 0.00 0.00 89 1010.8
20260505061408 17 339 3.2 9.7 0.00 0.00 0.00 89 1010.8
20260505061329 17 341 3.2 9.7 0.00 0.00 0.00 89 1010.7
20260505061208 17 344 3.2 9.7 0.00 0.00 0.00 89 1011.0
20260505061108 17 347 4.8 9.7 0.00 0.00 0.00 89 1010.8
20260505061029 17 348 4.8 11.3 0.00 0.00 0.00 89 1010.8
20260505060908 17 345 3.2 11.3 0.00 0.00 0.00 89 1010.7
20260505060808 17 347 4.8 11.3 0.00 0.00 0.00 89 1010.9
20260505060708 17 348 3.2 11.3 0.00 0.00 0.00 89 1010.9
20260505060608 17 348 3.2 11.3 0.00 0.00 0.00 89 1010.8
20260505060508 17 348 4.8 12.9 0.00 0.00 0.00 89 1010.9
20260505060408 17 348 6.4 12.9 0.00 0.00 0.00 89 1010.7
20260505060308 17 344 3.2 12.9 0.00 0.00 0.00 89 1011.0
20260505060208 17 343 6.4 12.9 0.00 0.00 0.00 89 1010.9
20260505060108 17 343 6.4 12.9 0.00 0.00 0.00 89 1010.9
20260505060009 17 342 6.4 12.9 0.00 0.00 0.00 89 1011.0
20260505055929 17 343 6.4 12.9 0.00 0.00 0.00 89 1010.9
20260505055808 17 341 4.8 12.9 0.00 0.00 0.00 89 1010.8
20260505055708 17 342 6.4 12.9 0.00 0.00 0.00 89 1010.9
20260505055608 17 343 4.8 12.9 0.00 0.00 0.00 89 1010.9
20260505055508 17 344 4.8 12.9 0.00 0.00 0.00 88 1010.9
20260505055408 17 344 6.4 12.9 0.00 0.00 0.00 88 1011.1
20260505055329 17 346 6.4 11.3 0.00 0.00 0.00 88 1011.0
20260505055208 17 352 6.4 11.3 0.00 0.00 0.00 88 1011.1
20260505055108 17 352 3.2 9.7 0.00 0.00 0.00 88 1010.9
20260505055008 17 353 4.8 9.7 0.00 0.00 0.00 88 1010.9
20260505054908 17 352 3.2 9.7 0.00 0.00 0.00 88 1011.0
20260505054808 17 354 4.8 9.7 0.00 0.00 0.00 88 1011.0
20260505054708 17 354 6.4 9.7 0.00 0.00 0.00 88 1011.1
20260505054629 17 353 6.4 9.7 0.00 0.00 0.00 88 1011.1
20260505054508 17 356 4.8 6.4 0.00 0.00 0.00 88 1010.8
20260505054408 17 357 4.8 6.4 0.00 0.00 0.00 88 1010.8
20260505054308 17 354 4.8 6.4 0.00 0.00 0.00 88 1010.8
20260505054208 17 354 4.8 9.7 0.00 0.00 0.00 88 1010.8
20260505054108 17 354 3.2 9.7 0.00 0.00 0.00 88 1010.8
20260505054008 17 354 3.2 9.7 0.00 0.00 0.00 88 1010.7
20260505053908 17 356 3.2 9.7 0.00 0.00 0.00 87 1010.8
20260505053808 17 356 3.2 9.7 0.00 0.00 0.00 87 1010.8
20260505053729 17 358 4.8 9.7 0.00 0.00 0.00 87 1010.8
20260505053608 17 2 3.2 9.7 0.00 0.00 0.00 87 1010.8
20260505053529 17 3 4.8 9.7 0.00 0.00 0.00 87 1010.8
20260505053408 17 6 4.8 9.7 0.00 0.00 0.00 87 1010.8
20260505053308 17 11 3.2 9.7 0.00 0.00 0.00 87 1010.8
20260505053208 17 16 6.4 9.7 0.00 0.00 0.00 87 1010.9
20260505053108 17 19 3.2 9.7 0.00 0.00 0.00 87 1010.9
20260505053008 17 21 3.2 9.7 0.00 0.00 0.00 87 1011.0
20260505052908 17 23 3.2 9.7 0.00 0.00 0.00 87 1010.9
20260505052808 17 24 3.2 9.7 0.00 0.00 0.00 87 1010.8
20260505052708 17 26 3.2 9.7 0.00 0.00 0.00 87 1010.8
20260505052608 17 26 4.8 9.7 0.00 0.00 0.00 87 1010.8
20260505052508 17 26 3.2 6.4 0.00 0.00 0.00 87 1010.8
20260505052429 17 26 4.8 6.4 0.00 0.00 0.00 86 1010.7
20260505052308 17 24 4.8 6.4 0.00 0.00 0.00 86 1010.8
20260505052229 17 24 4.8 6.4 0.00 0.00 0.00 86 1010.8
20260505052108 17 22 3.2 6.4 0.00 0.00 0.00 86 1011.0
20260505052008 17 22 3.2 6.4 0.00 0.00 0.00 86 1011.0
20260505051908 17 23 3.2 6.4 0.00 0.00 0.00 86 1010.9
20260505051808 17 23 3.2 6.4 0.00 0.00 0.00 86 1010.7
20260505051708 17 22 3.2 6.4 0.00 0.00 0.00 86 1011.1
20260505051629 17 21 3.2 6.4 0.00 0.00 0.00 86 1011.2
20260505051529 17 19 3.2 6.4 0.00 0.00 0.00 86 1011.0
20260505051429 17 18 3.2 6.4 0.00 0.00 0.00 85 1011.0
20260505051329 17 17 3.2 9.7 0.00 0.00 0.00 85 1011.0
20260505051230 17 16 3.2 9.7 0.00 0.00 0.00 85 1011.0
20260505051108 17 15 3.2 9.7 0.00 0.00 0.00 85 1011.1
20260505051008 17 15 4.8 9.7 0.00 0.00 0.00 85 1011.0
20260505050908 17 15 3.2 9.7 0.00 0.00 0.00 85 1011.0
20260505050808 17 14 4.8 9.7 0.00 0.00 0.00 85 1010.9
20260505050708 17 13 3.2 9.7 0.00 0.00 0.00 85 1010.8
20260505050608 17 14 4.8 9.7 0.00 0.00 0.00 85 1011.1
20260505050508 17 14 3.2 9.7 0.00 0.00 0.00 85 1011.0
20260505050408 17 14 6.4 9.7 0.00 0.00 0.00 85 1011.1
20260505050308 17 13 3.2 9.7 0.00 0.00 0.00 85 1011.1
20260505050208 17 15 3.2 9.7 0.00 0.00 0.00 85 1011.0
20260505050108 17 14 4.8 9.7 0.00 0.00 0.00 84 1011.1
20260505041708 17 7 4.8 11.3 0.00 0.00 0.00 81 1011.2
20260505041608 17 8 3.2 11.3 0.00 0.00 0.00 81 1011.4
20260505041508 17 9 3.2 11.3 0.00 0.00 0.00 80 1011.4
20260505041408 17 9 4.8 11.3 0.00 0.00 0.00 80 1011.3
20260505041308 17 11 4.8 11.3 0.00 0.00 0.00 80 1011.4
20260505041208 17 11 4.8 11.3 0.00 0.00 0.00 80 1011.4
20260505041108 17 7 4.8 9.7 0.00 0.00 0.00 80 1011.3
20260505041008 17 9 4.8 9.7 0.00 0.00 0.00 80 1011.3
20260505040908 17 8 6.4 9.7 0.00 0.00 0.00 80 1011.2
20260505040808 17 5 3.2 6.4 0.00 0.00 0.00 80 1011.3
20260505040708 17 8 4.8 6.4 0.00 0.00 0.00 80 1011.4
20260505040608 17 11 4.8 9.7 0.00 0.00 0.00 80 1011.3
20260505040508 17 11 4.8 9.7 0.00 0.00 0.00 80 1011.3
20260505040408 17 11 4.8 11.3 0.00 0.00 0.00 80 1011.3
20260505040308 17 10 4.8 11.3 0.00 0.00 0.00 79 1011.4
20260505040208 17 11 4.8 11.3 0.00 0.00 0.00 79 1011.3
20260505040108 17 10 3.2 11.3 0.00 0.00 0.00 79 1011.2
20260505040009 17 10 3.2 12.9 0.00 0.00 0.00 79 1011.4
20260505035908 17 9 3.2 12.9 0.00 0.00 0.00 79 1011.3
20260505035808 17 10 4.8 12.9 0.00 0.00 0.00 78 1011.2
20260505035708 17 11 4.8 12.9 0.00 0.00 0.00 78 1011.2
20260505035629 17 11 6.4 12.9 0.00 0.00 0.00 78 1011.1
20260505035508 17 12 4.8 12.9 0.00 0.00 0.00 78 1011.2
20260505035429 17 13 4.8 12.9 0.00 0.00 0.00 78 1011.2
20260505035308 17 16 4.8 14.5 0.00 0.00 0.00 78 1011.2
20260505035208 17 18 4.8 14.5 0.00 0.00 0.00 78 1011.2
20260505035108 17 17 6.4 14.5 0.00 0.00 0.00 78 1011.4
20260505035008 17 20 6.4 14.5 0.00 0.00 0.00 78 1011.1
20260505034929 17 21 6.4 14.5 0.00 0.00 0.00 78 1011.1
20260505034808 17 23 6.4 14.5 0.00 0.00 0.00 78 1011.1
20260505034708 17 23 4.8 14.5 0.00 0.00 0.00 78 1011.0
20260505034608 17 23 6.4 14.5 0.00 0.00 0.00 78 1011.1
20260505034508 17 20 8.0 14.5 0.00 0.00 0.00 78 1011.0
20260505034408 17 18 6.4 14.5 0.00 0.00 0.00 78 1011.0
20260505034308 17 16 6.4 14.5 0.00 0.00 0.00 78 1010.9
20260505034229 17 14 6.4 14.5 0.00 0.00 0.00 78 1010.9
20260505034108 17 16 6.4 14.5 0.00 0.00 0.00 78 1010.9
20260505034008 17 16 8.0 14.5 0.00 0.00 0.00 78 1011.1
20260505033908 17 14 6.4 14.5 0.00 0.00 0.00 78 1011.1
20260505033808 17 14 4.8 14.5 0.00 0.00 0.00 78 1011.0
20260505033708 17 14 8.0 14.5 0.00 0.00 0.00 78 1011.0
20260505033608 17 13 8.0 12.9 0.00 0.00 0.00 78 1011.0
20260505033508 17 14 6.4 14.5 0.00 0.00 0.00 77 1011.0
20260505033408 17 13 6.4 14.5 0.00 0.00 0.00 77 1011.0
20260505033308 17 17 6.4 14.5 0.00 0.00 0.00 77 1011.0
20260505033208 17 17 4.8 14.5 0.00 0.00 0.00 77 1011.2
20260505033108 17 16 6.4 14.5 0.00 0.00 0.00 77 1011.1
20260505033008 17 17 6.4 14.5 0.00 0.00 0.00 77 1011.1
20260505032908 17 18 6.4 14.5 0.00 0.00 0.00 77 1011.2
20260505032808 17 18 6.4 14.5 0.00 0.00 0.00 77 1011.1
20260505032708 17 18 4.8 14.5 0.00 0.00 0.00 77 1011.0
20260505032608 17 20 6.4 14.5 0.00 0.00 0.00 78 1011.0
20260505032508 17 18 6.4 14.5 0.00 0.00 0.00 78 1011.1
20260505032408 17 18 6.4 14.5 0.00 0.00 0.00 78 1011.2
20260505032329 17 16 6.4 14.5 0.00 0.00 0.00 78 1011.1
20260505032229 17 15 8.0 14.5 0.00 0.00 0.00 78 1011.4
20260505032108 17 16 4.8 14.5 0.00 0.00 0.00 78 1011.0
20260505032029 17 14 6.4 14.5 0.00 0.00 0.00 78 1011.0
20260505031908 17 11 6.4 14.5 0.00 0.00 0.00 78 1011.1
20260505031829 17 9 6.4 14.5 0.00 0.00 0.00 78 1011.1
20260505031708 17 10 6.4 14.5 0.00 0.00 0.00 78 1011.3
20260505031608 17 9 6.4 14.5 0.00 0.00 0.00 78 1011.0
20260505031508 17 11 6.4 14.5 0.00 0.00 0.00 78 1011.2
20260505031408 17 14 4.8 12.9 0.00 0.00 0.00 78 1011.0
20260505031308 17 14 6.4 12.9 0.00 0.00 0.00 78 1011.0
20260505031208 17 13 4.8 12.9 0.00 0.00 0.00 78 1011.2
20260505031129 17 11 4.8 12.9 0.00 0.00 0.00 78 1011.1
20260505031008 17 12 4.8 12.9 0.00 0.00 0.00 78 1010.9
20260505030908 17 13 6.4 12.9 0.00 0.00 0.00 78 1011.0
20260505030808 17 14 6.4 12.9 0.00 0.00 0.00 78 1011.0
20260505030708 17 11 4.8 11.3 0.00 0.00 0.00 78 1011.1
20260505030629 17 10 4.8 11.3 0.00 0.00 0.00 78 1011.1
20260505030508 17 8 3.2 11.3 0.00 0.00 0.00 78 1011.0
20260505030408 17 3 4.8 11.3 0.00 0.00 0.00 78 1011.0
20260505030308 17 1 6.4 11.3 0.00 0.00 0.00 78 1010.8
20260505030208 17 1 6.4 11.3 0.00 0.00 0.00 78 1010.9
20260505030108 17 2 6.4 11.3 0.00 0.00 0.00 78 1010.9
20260505030009 17 360 6.4 9.7 0.00 0.00 0.00 78 1010.9
20260505025908 17 357 4.8 9.7 0.00 0.00 0.00 78 1011.0
20260505025808 17 358 6.4 9.7 0.00 0.00 0.00 78 1011.1
20260505025708 17 358 6.4 11.3 0.00 0.00 0.00 78 1011.0
20260505025608 17 2 6.4 11.3 0.00 0.00 0.00 78 1010.8
20260505025508 17 1 4.8 11.3 0.00 0.00 0.00 78 1011.1
20260505025408 17 3 6.4 11.3 0.00 0.00 0.00 78 1011.0
20260505025329 17 5 6.4 11.3 0.00 0.00 0.00 78 1011.0
20260505025208 17 7 6.4 12.9 0.00 0.00 0.00 78 1011.0
20260505025108 17 8 6.4 12.9 0.00 0.00 0.00 78 1010.9
20260505025008 17 10 4.8 12.9 0.00 0.00 0.00 78 1010.8
20260505024908 17 10 6.4 12.9 0.00 0.00 0.00 78 1010.9
20260505024808 17 11 6.4 12.9 0.00 0.00 0.00 78 1010.8
20260505024708 17 11 6.4 12.9 0.00 0.00 0.00 78 1010.8
20260505024608 17 8 4.8 12.9 0.00 0.00 0.00 78 1010.9
20260505024508 17 7 4.8 12.9 0.00 0.00 0.00 78 1010.8
20260505024408 17 9 6.4 12.9 0.00 0.00 0.00 78 1010.8
20260505024308 17 7 6.4 12.9 0.00 0.00 0.00 78 1010.7
20260505024208 17 10 6.4 12.9 0.00 0.00 0.00 78 1010.7
20260505024108 17 11 4.8 11.3 0.00 0.00 0.00 79 1010.8
20260505024008 17 9 6.4 12.9 0.00 0.00 0.00 79 1010.8
20260505023908 17 10 6.4 12.9 0.00 0.00 0.00 79 1010.8
20260505023808 17 13 6.4 12.9 0.00 0.00 0.00 79 1010.8
20260505023709 17 14 6.4 12.9 0.00 0.00 0.00 79 1010.7
20260505023608 17 16 6.4 12.9 0.00 0.00 0.00 79 1010.9
20260505023508 17 17 6.4 12.9 0.00 0.00 0.00 78 1010.7
20260505023408 17 16 4.8 12.9 0.00 0.00 0.00 78 1010.8
20260505023308 17 17 6.4 12.9 0.00 0.00 0.00 78 1010.9
20260505023208 17 17 6.4 12.9 0.00 0.00 0.00 78 1010.8
20260505023108 17 16 8.0 12.9 0.00 0.00 0.00 78 1010.9
20260505023008 17 17 6.4 11.3 0.00 0.00 0.00 78 1010.9
20260505022908 17 15 6.4 11.3 0.00 0.00 0.00 78 1010.7
20260505022808 17 13 4.8 9.7 0.00 0.00 0.00 78 1010.9
20260505022708 17 12 4.8 9.7 0.00 0.00 0.00 78 1010.7
20260505022608 17 12 6.4 9.7 0.00 0.00 0.00 78 1010.9
20260505022508 17 11 4.8 9.7 0.00 0.00 0.00 78 1010.7
20260505022408 17 11 3.2 9.7 0.00 0.00 0.00 78 1010.8
20260505022308 17 10 6.4 9.7 0.00 0.00 0.00 78 1010.7
20260505022229 17 8 6.4 9.7 0.00 0.00 0.00 78 1010.7
20260505022129 17 9 4.8 9.7 0.00 0.00 0.00 78 1010.6
20260505022008 17 11 4.8 11.3 0.00 0.00 0.00 78 1010.6
20260505021908 17 13 4.8 11.3 0.00 0.00 0.00 78 1010.6
20260505021808 17 12 4.8 11.3 0.00 0.00 0.00 78 1010.6
20260505021708 16 13 4.8 11.3 0.00 0.00 0.00 78 1010.7
20260505021608 16 10 4.8 11.3 0.00 0.00 0.00 78 1010.5
20260505021508 16 10 3.2 11.3 0.00 0.00 0.00 78 1010.7
20260505021408 16 10 4.8 11.3 0.00 0.00 0.00 78 1010.7
20260505021308 16 9 4.8 11.3 0.00 0.00 0.00 78 1010.5
20260505021229 16 10 4.8 11.3 0.00 0.00 0.00 78 1010.6
20260505021108 16 11 6.4 11.3 0.00 0.00 0.00 78 1010.6
20260505021008 16 11 6.4 9.7 0.00 0.00 0.00 78 1010.6
20260505020908 16 9 4.8 11.3 0.00 0.00 0.00 78 1010.6
20260505020808 16 8 4.8 11.3 0.00 0.00 0.00 78 1010.6
20260505020708 16 7 4.8 11.3 0.00 0.00 0.00 77 1010.5
20260505020608 16 9 3.2 11.3 0.00 0.00 0.00 77 1010.6
20260505020508 16 9 4.8 11.3 0.00 0.00 0.00 77 1010.6
20260505020408 17 9 4.8 11.3 0.00 0.00 0.00 77 1010.6
20260505020308 17 9 4.8 11.3 0.00 0.00 0.00 77 1010.6
20260505020208 17 8 4.8 11.3 0.00 0.00 0.00 77 1010.5
20260505020129 17 10 4.8 11.3 0.00 0.00 0.00 77 1010.5
20260505020009 17 3 4.8 11.3 0.00 0.00 0.00 77 1010.7
20260505015908 17 2 4.8 11.3 0.00 0.00 0.00 77 1010.8
20260505015808 17 1 4.8 11.3 0.00 0.00 0.00 77 1010.5
20260505015708 17 359 4.8 11.3 0.00 0.00 0.00 77 1010.6
20260505015629 17 359 4.8 11.3 0.00 0.00 0.00 77 1010.4
20260505015508 17 356 3.2 11.3 0.00 0.00 0.00 76 1010.5
20260505015408 17 355 3.2 11.3 0.00 0.00 0.00 76 1010.7
20260505015329 17 354 4.8 11.3 0.00 0.00 0.00 76 1010.5
20260505015208 17 354 4.8 11.3 0.00 0.00 0.00 76 1010.6
20260505015108 17 351 6.4 11.3 0.00 0.00 0.00 76 1010.6
20260505015008 17 351 4.8 9.7 0.00 0.00 0.00 76 1010.5
20260505014908 17 350 4.8 9.7 0.00 0.00 0.00 76 1010.5
20260505014829 17 351 3.2 9.7 0.00 0.00 0.00 76 1010.5
20260505014708 17 355 4.8 9.7 0.00 0.00 0.00 76 1010.7
20260505014608 17 358 3.2 9.7 0.00 0.00 0.00 76 1010.6
20260505014508 17 358 4.8 9.7 0.00 0.00 0.00 76 1010.5
20260505014408 17 359 3.2 9.7 0.00 0.00 0.00 76 1010.6
20260505014308 17 1 4.8 9.7 0.00 0.00 0.00 76 1010.5
20260505014208 17 360 3.2 9.7 0.00 0.00 0.00 75 1010.6
20260505014108 17 3 3.2 9.7 0.00 0.00 0.00 75 1010.6
20260505014008 17 6 3.2 9.7 0.00 0.00 0.00 75 1010.6
20260505013908 17 9 4.8 9.7 0.00 0.00 0.00 75 1010.5
20260505013808 17 11 4.8 9.7 0.00 0.00 0.00 75 1010.6
20260505013708 17 12 6.4 12.9 0.00 0.00 0.00 75 1010.5
20260505013608 17 12 4.8 12.9 0.00 0.00 0.00 75 1010.6
20260505013508 17 11 3.2 12.9 0.00 0.00 0.00 75 1010.6
20260505013429 17 13 3.2 12.9 0.00 0.00 0.00 75 1010.6
20260505013308 17 14 3.2 12.9 0.00 0.00 0.00 75 1010.6
20260505013208 17 17 3.2 12.9 0.00 0.00 0.00 75 1010.5
20260505013108 17 16 4.8 12.9 0.00 0.00 0.00 76 1010.5
20260505013008 17 14 3.2 12.9 0.00 0.00 0.00 76 1010.5
20260505012908 17 15 4.8 12.9 0.00 0.00 0.00 76 1010.3
20260505012808 17 14 4.8 12.9 0.00 0.00 0.00 76 1010.5
20260505012708 17 14 6.4 11.3 0.00 0.00 0.00 77 1010.5
20260505012607 17 15 6.4 11.3 0.00 0.00 0.00 77 1010.6
20260505012508 17 21 4.8 9.7 0.00 0.00 0.00 77 1010.5
20260505012408 17 19 4.8 9.7 0.00 0.00 0.00 78 1010.3
20260505012308 17 21 3.2 9.7 0.00 0.00 0.00 78 1010.5
20260505012208 17 21 3.2 9.7 0.00 0.00 0.00 78 1010.6
20260505012108 16 20 3.2 9.7 0.00 0.00 0.00 78 1010.5
20260505012008 16 22 3.2 9.7 0.00 0.00 0.00 79 1010.5
20260505011908 16 24 3.2 9.7 0.00 0.00 0.00 79 1010.4
20260505011808 16 25 3.2 9.7 0.00 0.00 0.00 79 1010.4
20260505011729 16 24 4.8 9.7 0.00 0.00 0.00 79 1010.5
20260505011629 16 25 4.8 9.7 0.00 0.00 0.00 79 1010.6
20260505011508 16 27 4.8 6.4 0.00 0.00 0.00 80 1010.4
20260505011408 16 28 4.8 9.7 0.00 0.00 0.00 80 1010.4
20260505011308 16 30 4.8 9.7 0.00 0.00 0.00 80 1010.5
20260505011208 16 31 3.2 9.7 0.00 0.00 0.00 80 1010.4
20260505011108 16 32 3.2 9.7 0.00 0.00 0.00 80 1010.5
20260505011008 16 34 4.8 9.7 0.00 0.00 0.00 80 1010.6
20260505010908 16 33 3.2 9.7 0.00 0.00 0.00 80 1010.5
20260505010829 16 34 4.8 9.7 0.00 0.00 0.00 80 1010.6
20260505010708 16 39 4.8 9.7 0.00 0.00 0.00 81 1010.4
20260505010608 16 39 3.2 9.7 0.00 0.00 0.00 81 1010.4
20260505010508 16 36 4.8 9.7 0.00 0.00 0.00 81 1010.3
20260505010408 16 36 6.4 9.7 0.00 0.00 0.00 81 1010.5
20260505010308 16 36 4.8 9.7 0.00 0.00 0.00 81 1010.5
20260505010208 16 36 6.4 9.7 0.00 0.00 0.00 81 1010.5
20260505010108 16 38 3.2 6.4 0.00 0.00 0.00 81 1010.5
20260505010009 16 40 3.2 6.4 0.00 0.00 0.00 81 1010.5
20260505005908 16 41 3.2 6.4 0.00 0.00 0.00 81 1010.5
20260505005808 16 40 4.8 6.4 0.00 0.00 0.00 81 1010.6
20260505005729 16 40 3.2 6.4 0.00 0.00 0.00 81 1010.6
20260505005608 16 37 3.2 6.4 0.00 0.00 0.00 81 1010.6
20260505005529 16 38 3.2 6.4 0.00 0.00 0.00 81 1010.5
20260505005408 16 39 3.2 6.4 0.00 0.00 0.00 81 1010.4
20260505005308 16 40 3.2 6.4 0.00 0.00 0.00 81 1010.4
20260505005208 16 40 3.2 6.4 0.00 0.00 0.00 81 1010.4
20260505005108 16 39 3.2 6.4 0.00 0.00 0.00 81 1010.5
20260505005029 16 39 3.2 6.4 0.00 0.00 0.00 81 1010.5
20260505004908 16 39 3.2 6.4 0.00 0.00 0.00 81 1010.3
20260505004808 16 40 3.2 6.4 0.00 0.00 0.00 81 1010.3
20260505004729 16 40 3.2 6.4 0.00 0.00 0.00 80 1010.4
20260505004629 16 42 3.2 6.4 0.00 0.00 0.00 80 1010.3